Observation data for Lake Alan Henry on 12/09/2018      Previous  Date       Current Mesonet Observations  Soil Data  Daily Summary Page  Observations in Plain Language
KAHS 090600Z 29004KT M02/M02 A3031 RMK A01 T10171021  RH  097%=      5-min Rain = 0
KAHS 090601Z 29004KT M02/M02 A3031 RMK A01 T10171021  RH  097%=      5-min Rain = 0
KAHS 090602Z 29004KT M02/M02 A3031 RMK A01 T10161020  RH  097%=      5-min Rain = 0
KAHS 090603Z 29005KT M02/M02 A3031 RMK A01 T10161020  RH  097%=      5-min Rain = 0
KAHS 090604Z 30005KT M02/M02 A3031 RMK A01 T10151019  RH  097%=      5-min Rain = 0
KAHS 090605Z 30005KT M01/M02 A3031 RMK A01 T10141018  RH  097%=      5-min Rain = 0
KAHS 090606Z 30005KT M01/M02 A3031 RMK A01 T10141018  RH  097%=      5-min Rain = 0
KAHS 090607Z 30004KT M01/M02 A3031 RMK A01 T10141018  RH  097%=      5-min Rain = 0
KAHS 090608Z 30005KT M01/M02 A3031 RMK A01 T10131018  RH  097%=      5-min Rain = 0
KAHS 090609Z 30005KT M01/M02 A3031 RMK A01 T10131018  RH  097%=      5-min Rain = 0
KAHS 090610Z 30005KT M01/M02 A3031 RMK A01 T10131018  RH  097%=      5-min Rain = 0
KAHS 090611Z 30004KT M01/M02 A3031 RMK A01 T10131018  RH  097%=      5-min Rain = 0
KAHS 090612Z 30005KT M01/M02 A3031 RMK A01 T10131018  RH  096%=      5-min Rain = 0
KAHS 090613Z 30005KT M01/M02 A3031 RMK A01 T10131018  RH  096%=      5-min Rain = 0
KAHS 090614Z 30005KT M01/M02 A3031 RMK A01 T10131018  RH  096%=      5-min Rain = 0
KAHS 090615Z 30005KT M01/M02 A3031 RMK A01 T10121018  RH  096%=      5-min Rain = 0
KAHS 090616Z 31005KT M01/M02 A3031 RMK A01 T10121017  RH  096%=      5-min Rain = 0
KAHS 090617Z 31005KT M01/M02 A3031 RMK A01 T10121018  RH  096%=      5-min Rain = 0
KAHS 090618Z 31006KT M01/M02 A3031 RMK A01 T10131018  RH  096%=      5-min Rain = 0
KAHS 090619Z 31006KT M01/M02 A3031 RMK A01 T10131018  RH  096%=      5-min Rain = 0
KAHS 090620Z 31006KT M01/M02 A3031 RMK A01 T10131019  RH  096%=      5-min Rain = 0
KAHS 090621Z 31006KT M01/M02 A3031 RMK A01 T10131018  RH  096%=      5-min Rain = 0
KAHS 090622Z 30006KT M01/M02 A3031 RMK A01 T10131018  RH  096%=      5-min Rain = 0
KAHS 090623Z 30006KT M01/M02 A3031 RMK A01 T10131018  RH  096%=      5-min Rain = 0
KAHS 090624Z 30006KT M01/M02 A3031 RMK A01 T10131018  RH  096%=      5-min Rain = 0
KAHS 090625Z 30006KT M01/M02 A3031 RMK A01 T10131019  RH  096%=      5-min Rain = 0
KAHS 090626Z 31006KT M01/M02 A3031 RMK A01 T10131019  RH  096%=      5-min Rain = 0
KAHS 090627Z 31006KT M01/M02 A3031 RMK A01 T10131019  RH  096%=      5-min Rain = 0
KAHS 090628Z 31006KT M01/M02 A3031 RMK A01 T10131019  RH  096%=      5-min Rain = 0
KAHS 090629Z 30006KT M01/M02 A3031 RMK A01 T10131019  RH  096%=      5-min Rain = 0
KAHS 090630Z 31006KT M01/M02 A3031 RMK A01 T10121018  RH  096%=      5-min Rain = 0
KAHS 090631Z 30006KT M01/M02 A3031 RMK A01 T10121018  RH  096%=      5-min Rain = 0
KAHS 090632Z 30006KT M01/M02 A3031 RMK A01 T10121018  RH  096%=      5-min Rain = 0
KAHS 090633Z 30006KT M01/M02 A3031 RMK A01 T10121018  RH  096%=      5-min Rain = 0
KAHS 090634Z 30006KT M01/M02 A3031 RMK A01 T10121018  RH  096%=      5-min Rain = 0
KAHS 090635Z 30006KT M01/M02 A3031 RMK A01 T10121019  RH  096%=      5-min Rain = 0
KAHS 090636Z 31007KT M01/M02 A3031 RMK A01 T10131019  RH  096%=      5-min Rain = 0
KAHS 090637Z 30007KT M01/M02 A3031 RMK A01 T10121018  RH  096%=      5-min Rain = 0
KAHS 090638Z 30006KT M01/M02 A3031 RMK A01 T10121018  RH  096%=      5-min Rain = 0
KAHS 090639Z 30006KT M01/M02 A3031 RMK A01 T10121018  RH  096%=      5-min Rain = 0
KAHS 090640Z 30006KT M01/M02 A3031 RMK A01 T10121018  RH  095%=      5-min Rain = 0
KAHS 090641Z 30007KT M01/M02 A3031 RMK A01 T10121018  RH  095%=      5-min Rain = 0
KAHS 090642Z 30006KT M01/M02 A3031 RMK A01 T10121018  RH  095%=      5-min Rain = 0
KAHS 090643Z 30007KT M01/M02 A3031 RMK A01 T10121018  RH  095%=      5-min Rain = 0
KAHS 090644Z 30006KT M01/M02 A3031 RMK A01 T10121018  RH  095%=      5-min Rain = 0
KAHS 090645Z 30006KT M01/M02 A3031 RMK A01 T10121018  RH  095%=      5-min Rain = 0
KAHS 090646Z 30006KT M01/M02 A3031 RMK A01 T10121018  RH  095%=      5-min Rain = 0
KAHS 090647Z 30006KT M01/M02 A3031 RMK A01 T10121018  RH  095%=      5-min Rain = 0
KAHS 090648Z 29006KT M01/M02 A3031 RMK A01 T10121018  RH  095%=      5-min Rain = 0
KAHS 090649Z 29006KT M01/M02 A3031 RMK A01 T10111018  RH  095%=      5-min Rain = 0
KAHS 090650Z 29005KT M01/M02 A3031 RMK A01 T10121019  RH  095%=      5-min Rain = 0
KAHS 090651Z 28005KT M01/M02 A3031 RMK A01 T10121019  RH  095%=      5-min Rain = 0
KAHS 090652Z 28005KT M01/M02 A3031 RMK A01 T10121019  RH  095%=      5-min Rain = 0
KAHS 090653Z 29005KT M01/M02 A3031 RMK A01 T10131019  RH  095%=      5-min Rain = 0
KAHS 090654Z 29005KT M01/M02 A3031 RMK A01 T10131020  RH  095%=      5-min Rain = 0
KAHS 090655Z 29005KT M01/M02 A3031 RMK A01 T10131020  RH  095%=      5-min Rain = 0
KAHS 090656Z 29005KT M01/M02 A3031 RMK A01 T10131020  RH  095%=      5-min Rain = 0
KAHS 090657Z 29005KT M01/M02 A3031 RMK A01 T10131020  RH  095%=      5-min Rain = 0
KAHS 090658Z 29005KT M01/M02 A3031 RMK A01 T10141020  RH  095%=      5-min Rain = 0
KAHS 090659Z 29005KT M01/M02 A3031 RMK A01 T10141020  RH  095%=      5-min Rain = 0
KAHS 090700Z 29005KT M01/M02 A3031 RMK A01 T10141020  RH  096%=      5-min Rain = 0
KAHS 090701Z 29005KT M02/M02 A3031 RMK A01 T10151021  RH  096%=      5-min Rain = 0
KAHS 090702Z 29005KT M02/M02 A3031 RMK A01 T10151021  RH  096%=      5-min Rain = 0
KAHS 090703Z 29004KT M02/M02 A3031 RMK A01 T10151021  RH  096%=      5-min Rain = 0
KAHS 090704Z 29004KT M02/M02 A3031 RMK A01 T10151021  RH  096%=      5-min Rain = 0
KAHS 090705Z 29004KT M02/M02 A3031 RMK A01 T10151021  RH  096%=      5-min Rain = 0
KAHS 090706Z 29004KT M02/M02 A3031 RMK A01 T10161022  RH  096%=      5-min Rain = 0
KAHS 090707Z 30005KT M02/M02 A3031 RMK A01 T10161022  RH  096%=      5-min Rain = 0
KAHS 090708Z 30005KT M02/M02 A3031 RMK A01 T10161022  RH  096%=      5-min Rain = 0
KAHS 090709Z 29005KT M02/M02 A3031 RMK A01 T10161022  RH  096%=      5-min Rain = 0
KAHS 090710Z 29005KT M02/M02 A3031 RMK A01 T10161022  RH  096%=      5-min Rain = 0
KAHS 090711Z 29006KT M02/M02 A3031 RMK A01 T10161022  RH  096%=      5-min Rain = 0
KAHS 090712Z 29005KT M02/M02 A3031 RMK A01 T10161021  RH  096%=      5-min Rain = 0
KAHS 090713Z 29005KT M02/M02 A3031 RMK A01 T10161021  RH  096%=      5-min Rain = 0
KAHS 090714Z 29006KT M02/M02 A3031 RMK A01 T10161021  RH  096%=      5-min Rain = 0
KAHS 090715Z 30005KT M02/M02 A3031 RMK A01 T10161021  RH  096%=      5-min Rain = 0
KAHS 090716Z 30005KT M02/M02 A3031 RMK A01 T10161021  RH  096%=      5-min Rain = 0
KAHS 090717Z 30004KT M02/M02 A3031 RMK A01 T10151021  RH  096%=      5-min Rain = 0
KAHS 090718Z 30005KT M02/M02 A3031 RMK A01 T10151021  RH  096%=      5-min Rain = 0
KAHS 090719Z 30005KT M02/M02 A3031 RMK A01 T10161021  RH  096%=      5-min Rain = 0
KAHS 090720Z 31005KT M02/M02 A3031 RMK A01 T10151021  RH  096%=      5-min Rain = 0
KAHS 090721Z 31005KT M02/M02 A3031 RMK A01 T10151021  RH  096%=      5-min Rain = 0
KAHS 090722Z 31005KT M02/M02 A3031 RMK A01 T10151021  RH  096%=      5-min Rain = 0
KAHS 090723Z 31005KT M02/M02 A3031 RMK A01 T10151020  RH  096%=      5-min Rain = 0
KAHS 090724Z 31005KT M02/M02 A3031 RMK A01 T10151020  RH  096%=      5-min Rain = 0
KAHS 090725Z 31006KT M02/M02 A3031 RMK A01 T10151020  RH  096%=      5-min Rain = 0
KAHS 090726Z 31005KT M02/M02 A3031 RMK A01 T10151020  RH  096%=      5-min Rain = 0
KAHS 090727Z 31005KT M02/M02 A3031 RMK A01 T10151020  RH  096%=      5-min Rain = 0
KAHS 090728Z 31005KT M01/M02 A3031 RMK A01 T10141020  RH  096%=      5-min Rain = 0
KAHS 090729Z 32005KT M01/M02 A3031 RMK A01 T10141020  RH  096%=      5-min Rain = 0
KAHS 090730Z 32005KT M01/M02 A3031 RMK A01 T10141020  RH  096%=      5-min Rain = 0
KAHS 090731Z 31005KT M02/M02 A3031 RMK A01 T10151020  RH  096%=      5-min Rain = 0
KAHS 090732Z 32005KT M02/M02 A3031 RMK A01 T10151020  RH  096%=      5-min Rain = 0
KAHS 090733Z 31005KT M02/M02 A3031 RMK A01 T10151021  RH  096%=      5-min Rain = 0
KAHS 090734Z 32006KT M02/M02 A303 RMK A01 T10151021  RH  096%=      5-min Rain = 0
KAHS 090735Z 32005KT M02/M02 A3031 RMK A01 T10151021  RH  096%=      5-min Rain = 0
KAHS 090736Z 32006KT M02/M02 A3031 RMK A01 T10151021  RH  096%=      5-min Rain = 0
KAHS 090737Z 32006KT M02/M02 A303 RMK A01 T10161022  RH  096%=      5-min Rain = 0
KAHS 090738Z 32006KT M02/M02 A303 RMK A01 T10161022  RH  096%=      5-min Rain = 0
KAHS 090739Z 32006KT M02/M02 A303 RMK A01 T10161022  RH  096%=      5-min Rain = 0
KAHS 090740Z 32005KT M02/M02 A303 RMK A01 T10161022  RH  096%=      5-min Rain = 0
KAHS 090741Z 32005KT M02/M02 A303 RMK A01 T10161022  RH  096%=      5-min Rain = 0
KAHS 090742Z 32005KT M02/M02 A303 RMK A01 T10171023  RH  096%=      5-min Rain = 0
KAHS 090743Z 32005KT M02/M02 A303 RMK A01 T10171023  RH  096%=      5-min Rain = 0
KAHS 090744Z 32006KT M02/M02 A303 RMK A01 T10181024  RH  096%=      5-min Rain = 0
KAHS 090745Z 32006KT M02/M02 A303 RMK A01 T10181024  RH  096%=      5-min Rain = 0
KAHS 090746Z 32006KT M02/M02 A303 RMK A01 T10181024  RH  096%=      5-min Rain = 0
KAHS 090747Z 32006KT M02/M02 A303 RMK A01 T10181023  RH  096%=      5-min Rain = 0
KAHS 090748Z 32007KT M02/M02 A303 RMK A01 T10181023  RH  096%=      5-min Rain = 0
KAHS 090749Z 32007KT M02/M02 A303 RMK A01 T10171023  RH  096%=      5-min Rain = 0
KAHS 090750Z 32007KT M02/M02 A303 RMK A01 T10171023  RH  096%=      5-min Rain = 0
KAHS 090751Z 32007KT M02/M02 A303 RMK A01 T10171023  RH  096%=      5-min Rain = 0
KAHS 090752Z 32007KT M02/M02 A303 RMK A01 T10171022  RH  096%=      5-min Rain = 0
KAHS 090753Z 32007KT M02/M02 A303 RMK A01 T10171022  RH  096%=      5-min Rain = 0
KAHS 090754Z 32007KT M02/M02 A303 RMK A01 T10171022  RH  096%=      5-min Rain = 0
KAHS 090755Z 32007KT M02/M02 A303 RMK A01 T10171022  RH  096%=      5-min Rain = 0
KAHS 090756Z 32007KT M02/M02 A303 RMK A01 T10171022  RH  096%=      5-min Rain = 0
KAHS 090757Z 32007KT M02/M02 A303 RMK A01 T10171023  RH  096%=      5-min Rain = 0
KAHS 090758Z 32007KT M02/M02 A303 RMK A01 T10171023  RH  096%=      5-min Rain = 0
KAHS 090759Z 32007KT M02/M02 A303 RMK A01 T10171023  RH  096%=      5-min Rain = 0
KAHS 090800Z 32007KT M02/M02 A303 RMK A01 T10171023  RH  095%=      5-min Rain = 0
KAHS 090801Z 32007KT M02/M02 A303 RMK A01 T10171023  RH  095%=      5-min Rain = 0
KAHS 090802Z 33007KT M02/M02 A303 RMK A01 T10161023  RH  095%=      5-min Rain = 0
KAHS 090803Z 32006KT M02/M02 A303 RMK A01 T10161023  RH  095%=      5-min Rain = 0
KAHS 090804Z 33007KT M02/M02 A303 RMK A01 T10161023  RH  095%=      5-min Rain = 0
KAHS 090805Z 33006KT M02/M02 A303 RMK A01 T10161023  RH  095%=      5-min Rain = 0
KAHS 090806Z 33007KT M02/M02 A303 RMK A01 T10161023  RH  095%=      5-min Rain = 0
KAHS 090807Z 33007KT M02/M02 A303 RMK A01 T10161023  RH  095%=      5-min Rain = 0
KAHS 090808Z 33007KT M02/M02 A303 RMK A01 T10161023  RH  095%=      5-min Rain = 0
KAHS 090809Z 33006KT M02/M02 A303 RMK A01 T10161024  RH  095%=      5-min Rain = 0
KAHS 090810Z 33007KT M02/M02 A303 RMK A01 T10161024  RH  094%=      5-min Rain = 0
KAHS 090811Z 33007KT M02/M02 A303 RMK A01 T10161024  RH  095%=      5-min Rain = 0
KAHS 090812Z 33007KT M02/M02 A303 RMK A01 T10161024  RH  094%=      5-min Rain = 0
KAHS 090813Z 32006KT M02/M02 A303 RMK A01 T10161024  RH  094%=      5-min Rain = 0
KAHS 090814Z 33006KT M02/M02 A303 RMK A01 T10161024  RH  094%=      5-min Rain = 0
KAHS 090815Z 32007KT M02/M02 A303 RMK A01 T10161024  RH  094%=      5-min Rain = 0
KAHS 090816Z 32006KT M02/M02 A303 RMK A01 T10161024  RH  094%=      5-min Rain = 0
KAHS 090817Z 32006KT M02/M02 A303 RMK A01 T10161024  RH  094%=      5-min Rain = 0
KAHS 090818Z 32006KT M02/M02 A303 RMK A01 T10161024  RH  094%=      5-min Rain = 0
KAHS 090819Z 32006KT M02/M02 A303 RMK A01 T10161024  RH  094%=      5-min Rain = 0
KAHS 090820Z 32006KT M02/M02 A303 RMK A01 T10161024  RH  094%=      5-min Rain = 0
KAHS 090821Z 33007KT M02/M02 A303 RMK A01 T10161024  RH  094%=      5-min Rain = 0
KAHS 090822Z 32006KT M02/M02 A303 RMK A01 T10161024  RH  094%=      5-min Rain = 0
KAHS 090823Z 32007KT M02/M02 A303 RMK A01 T10161024  RH  094%=      5-min Rain = 0
KAHS 090824Z 32006KT M02/M02 A303 RMK A01 T10161024  RH  094%=      5-min Rain = 0
KAHS 090825Z 32007KT M02/M02 A303 RMK A01 T10161024  RH  094%=      5-min Rain = 0
KAHS 090826Z 32006KT M02/M02 A303 RMK A01 T10161024  RH  094%=      5-min Rain = 0
KAHS 090827Z 32007KT M02/M02 A303 RMK A01 T10151024  RH  094%=      5-min Rain = 0
KAHS 090828Z 32007KT M02/M02 A303 RMK A01 T10151024  RH  094%=      5-min Rain = 0
KAHS 090829Z 32007KT M02/M02 A303 RMK A01 T10151024  RH  094%=      5-min Rain = 0
KAHS 090830Z 32006KT M02/M02 A303 RMK A01 T10151024  RH  094%=      5-min Rain = 0
KAHS 090831Z 32006KT M02/M02 A303 RMK A01 T10151024  RH  094%=      5-min Rain = 0
KAHS 090832Z 32007KT M02/M02 A303 RMK A01 T10151024  RH  093%=      5-min Rain = 0
KAHS 090833Z 32006KT M02/M02 A3031 RMK A01 T10151024  RH  094%=      5-min Rain = 0
KAHS 090834Z 32006KT M02/M03 A3031 RMK A01 T10161025  RH  094%=      5-min Rain = 0
KAHS 090835Z 31006KT M02/M03 A3031 RMK A01 T10161025  RH  094%=      5-min Rain = 0
KAHS 090836Z 32006KT M02/M03 A3031 RMK A01 T10161025  RH  094%=      5-min Rain = 0
KAHS 090837Z 32006KT M02/M03 A3031 RMK A01 T10161025  RH  094%=      5-min Rain = 0
KAHS 090838Z 32007KT M02/M03 A3031 RMK A01 T10161026  RH  094%=      5-min Rain = 0
KAHS 090839Z 32007KT M02/M03 A3031 RMK A01 T10171026  RH  094%=      5-min Rain = 0
KAHS 090840Z 32007KT M02/M03 A303 RMK A01 T10171026  RH  094%=      5-min Rain = 0
KAHS 090841Z 32006KT M02/M03 A303 RMK A01 T10171026  RH  094%=      5-min Rain = 0
KAHS 090842Z 32007KT M02/M03 A303 RMK A01 T10171026  RH  094%=      5-min Rain = 0
KAHS 090843Z 32007KT M02/M03 A303 RMK A01 T10161026  RH  094%=      5-min Rain = 0
KAHS 090844Z 32007KT M02/M03 A303 RMK A01 T10171026  RH  093%=      5-min Rain = 0
KAHS 090845Z 32007KT M02/M03 A303 RMK A01 T10171026  RH  093%=      5-min Rain = 0
KAHS 090846Z 32006KT M02/M03 A303 RMK A01 T10161026  RH  093%=      5-min Rain = 0
KAHS 090847Z 33007KT M02/M03 A303 RMK A01 T10171026  RH  093%=      5-min Rain = 0
KAHS 090848Z 33006KT M02/M03 A3031 RMK A01 T10171026  RH  093%=      5-min Rain = 0
KAHS 090849Z 33007KT M02/M03 A3031 RMK A01 T10171026  RH  093%=      5-min Rain = 0
KAHS 090850Z 32006KT M02/M03 A3031 RMK A01 T10171026  RH  093%=      5-min Rain = 0
KAHS 090851Z 32006KT M02/M03 A303 RMK A01 T10171026  RH  093%=      5-min Rain = 0
KAHS 090852Z 32006KT M02/M03 A303 RMK A01 T10171026  RH  093%=      5-min Rain = 0
KAHS 090853Z 33006KT M02/M03 A303 RMK A01 T10171027  RH  093%=      5-min Rain = 0
KAHS 090854Z 32006KT M02/M03 A303 RMK A01 T10171027  RH  093%=      5-min Rain = 0
KAHS 090855Z 32006KT M02/M03 A3031 RMK A01 T10181027  RH  093%=      5-min Rain = 0
KAHS 090856Z 33006KT M02/M03 A303 RMK A01 T10181027  RH  093%=      5-min Rain = 0
KAHS 090857Z 33006KT M02/M03 A3031 RMK A01 T10181027  RH  093%=      5-min Rain = 0
KAHS 090858Z 33006KT M02/M03 A303 RMK A01 T10181027  RH  093%=      5-min Rain = 0
KAHS 090859Z 32006KT M02/M03 A303 RMK A01 T10181027  RH  093%=      5-min Rain = 0
KAHS 090900Z 33006KT M02/M03 A303 RMK A01 T10181027  RH  093%=      5-min Rain = 0
KAHS 090901Z 33006KT M02/M03 A303 RMK A01 T10181028  RH  093%=      5-min Rain = 0
KAHS 090902Z 33007KT M02/M03 A303 RMK A01 T10181027  RH  093%=      5-min Rain = 0
KAHS 090903Z 33007KT M02/M03 A303 RMK A01 T10181027  RH  093%=      5-min Rain = 0
KAHS 090904Z 33007KT M02/M03 A303 RMK A01 T10181027  RH  093%=      5-min Rain = 0
KAHS 090905Z 33007KT M02/M03 A303 RMK A01 T10181027  RH  093%=      5-min Rain = 0
KAHS 090906Z 32006KT M02/M03 A303 RMK A01 T10181028  RH  093%=      5-min Rain = 0
KAHS 090907Z 33007KT M02/M03 A303 RMK A01 T10181028  RH  093%=      5-min Rain = 0
KAHS 090908Z 33007KT M02/M03 A303 RMK A01 T10191028  RH  093%=      5-min Rain = 0
KAHS 090909Z 33006KT M02/M03 A303 RMK A01 T10181028  RH  093%=      5-min Rain = 0
KAHS 090910Z 32007KT M02/M03 A303 RMK A01 T10181028  RH  093%=      5-min Rain = 0
KAHS 090911Z 32007KT M02/M03 A303 RMK A01 T10181028  RH  093%=      5-min Rain = 0
KAHS 090912Z 32007KT M02/M03 A3031 RMK A01 T10191029  RH  093%=      5-min Rain = 0
KAHS 090913Z 32007KT M02/M03 A3031 RMK A01 T10191028  RH  093%=      5-min Rain = 0
KAHS 090914Z 33007KT M02/M03 A303 RMK A01 T10181028  RH  093%=      5-min Rain = 0
KAHS 090915Z 32006KT M02/M03 A303 RMK A01 T10181028  RH  093%=      5-min Rain = 0
KAHS 090916Z 32006KT M02/M03 A303 RMK A01 T10191028  RH  093%=      5-min Rain = 0
KAHS 090917Z 32006KT M02/M03 A303 RMK A01 T10191028  RH  093%=      5-min Rain = 0
KAHS 090918Z 32007KT M02/M03 A303 RMK A01 T10191029  RH  093%=      5-min Rain = 0
KAHS 090919Z 32006KT M02/M03 A303 RMK A01 T10191029  RH  093%=      5-min Rain = 0
KAHS 090920Z 32007KT M02/M03 A303 RMK A01 T10191029  RH  093%=      5-min Rain = 0
KAHS 090921Z 32006KT M02/M03 A303 RMK A01 T10191029  RH  093%=      5-min Rain = 0
KAHS 090922Z 32006KT M02/M03 A303 RMK A01 T10191029  RH  093%=      5-min Rain = 0
KAHS 090923Z 32007KT M02/M03 A303 RMK A01 T10191029  RH  093%=      5-min Rain = 0
KAHS 090924Z 33006KT M02/M03 A303 RMK A01 T10201029  RH  093%=      5-min Rain = 0
KAHS 090925Z 32006KT M02/M03 A303 RMK A01 T10201029  RH  093%=      5-min Rain = 0
KAHS 090926Z 32006KT M02/M03 A303 RMK A01 T10201029  RH  093%=      5-min Rain = 0
KAHS 090927Z 33006KT M02/M03 A303 RMK A01 T10201030  RH  093%=      5-min Rain = 0
KAHS 090928Z 32007KT M02/M03 A303 RMK A01 T10201030  RH  093%=      5-min Rain = 0
KAHS 090929Z 32007KT M02/M03 A303 RMK A01 T10201029  RH  093%=      5-min Rain = 0
KAHS 090930Z 32006KT M02/M03 A303 RMK A01 T10201030  RH  093%=      5-min Rain = 0
KAHS 090931Z 32007KT M02/M03 A303 RMK A01 T10201030  RH  093%=      5-min Rain = 0
KAHS 090932Z 33007KT M02/M03 A303 RMK A01 T10201030  RH  093%=      5-min Rain = 0
KAHS 090933Z 32007KT M02/M03 A303 RMK A01 T10201030  RH  093%=      5-min Rain = 0
KAHS 090934Z 33007KT M02/M03 A303 RMK A01 T10201030  RH  093%=      5-min Rain = 0
KAHS 090935Z 32007KT M02/M03 A303 RMK A01 T10201030  RH  093%=      5-min Rain = 0
KAHS 090936Z 33007KT M02/M03 A303 RMK A01 T10201030  RH  093%=      5-min Rain = 0
KAHS 090937Z 32007KT M02/M03 A303 RMK A01 T10201030  RH  093%=      5-min Rain = 0
KAHS 090938Z 32007KT M02/M03 A303 RMK A01 T10201031  RH  093%=      5-min Rain = 0
KAHS 090939Z 32007KT M02/M03 A303 RMK A01 T10201031  RH  093%=      5-min Rain = 0
KAHS 090940Z 32007KT M02/M03 A303 RMK A01 T10201030  RH  093%=      5-min Rain = 0
KAHS 090941Z 32007KT M02/M03 A303 RMK A01 T10201030  RH  093%=      5-min Rain = 0
KAHS 090942Z 32007KT M02/M03 A303 RMK A01 T10201031  RH  093%=      5-min Rain = 0
KAHS 090943Z 32007KT M02/M03 A303 RMK A01 T10201031  RH  093%=      5-min Rain = 0
KAHS 090944Z 32007KT M02/M03 A303 RMK A01 T10201031  RH  093%=      5-min Rain = 0
KAHS 090945Z 32007KT M02/M03 A303 RMK A01 T10201031  RH  093%=      5-min Rain = 0
KAHS 090946Z 32007KT M02/M03 A303 RMK A01 T10211031  RH  093%=      5-min Rain = 0
KAHS 090947Z 32007KT M02/M03 A303 RMK A01 T10211031  RH  093%=      5-min Rain = 0
KAHS 090948Z 32007KT M02/M03 A303 RMK A01 T10201031  RH  093%=      5-min Rain = 0
KAHS 090949Z 32007KT M02/M03 A303 RMK A01 T10211031  RH  093%=      5-min Rain = 0
KAHS 090950Z 32008KT M02/M03 A303 RMK A01 T10201031  RH  093%=      5-min Rain = 0
KAHS 090951Z 32007KT M02/M03 A303 RMK A01 T10201031  RH  093%=      5-min Rain = 0
KAHS 090952Z 32007KT M02/M03 A303 RMK A01 T10201030  RH  093%=      5-min Rain = 0
KAHS 090953Z 32007KT M02/M03 A303 RMK A01 T10201031  RH  092%=      5-min Rain = 0
KAHS 090954Z 32006KT M02/M03 A303 RMK A01 T10201031  RH  092%=      5-min Rain = 0
KAHS 090955Z 32007KT M02/M03 A303 RMK A01 T10201031  RH  092%=      5-min Rain = 0
KAHS 090956Z 33006KT M02/M03 A303 RMK A01 T10201031  RH  092%=      5-min Rain = 0
KAHS 090957Z 32006KT M02/M03 A303 RMK A01 T10201031  RH  092%=      5-min Rain = 0
KAHS 090958Z 33006KT M02/M03 A303 RMK A01 T10201031  RH  092%=      5-min Rain = 0
KAHS 090959Z 32006KT M02/M03 A303 RMK A01 T10211032  RH  092%=      5-min Rain = 0
KAHS 091000Z 32006KT M02/M03 A303 RMK A01 T10211032  RH  092%=      5-min Rain = 0
KAHS 091001Z 32006KT M02/M03 A303 RMK A01 T10211032  RH  093%=      5-min Rain = 0
KAHS 091002Z 33006KT M02/M03 A303 RMK A01 T10211032  RH  093%=      5-min Rain = 0
KAHS 091003Z 32007KT M02/M03 A303 RMK A01 T10211032  RH  093%=      5-min Rain = 0
KAHS 091004Z 32007KT M02/M03 A303 RMK A01 T10211032  RH  093%=      5-min Rain = 0
KAHS 091005Z 33007KT M02/M03 A303 RMK A01 T10211032  RH  092%=      5-min Rain = 0
KAHS 091006Z 32007KT M02/M03 A303 RMK A01 T10211032  RH  092%=      5-min Rain = 0
KAHS 091007Z 32007KT M02/M03 A3031 RMK A01 T10211032  RH  092%=      5-min Rain = 0
KAHS 091008Z 32007KT M02/M03 A3031 RMK A01 T10211032  RH  092%=      5-min Rain = 0
KAHS 091009Z 32007KT M02/M03 A3031 RMK A01 T10211032  RH  092%=      5-min Rain = 0
KAHS 091010Z 33006KT M02/M03 A3031 RMK A01 T10211032  RH  092%=      5-min Rain = 0
KAHS 091011Z 33007KT M02/M03 A3031 RMK A01 T10211032  RH  092%=      5-min Rain = 0
KAHS 091012Z 33007KT M02/M03 A3031 RMK A01 T10211032  RH  092%=      5-min Rain = 0
KAHS 091013Z 33007KT M02/M03 A303 RMK A01 T10211032  RH  092%=      5-min Rain = 0
KAHS 091014Z 33007KT M02/M03 A3031 RMK A01 T10211032  RH  092%=      5-min Rain = 0
KAHS 091015Z 33007KT M02/M03 A3031 RMK A01 T10211032  RH  092%=      5-min Rain = 0
KAHS 091016Z 33007KT M02/M03 A3031 RMK A01 T10211032  RH  092%=      5-min Rain = 0
KAHS 091017Z 33007KT M02/M03 A3031 RMK A01 T10221033  RH  092%=      5-min Rain = 0
KAHS 091018Z 33007KT M02/M03 A3031 RMK A01 T10221033  RH  092%=      5-min Rain = 0
KAHS 091019Z 33006KT M02/M03 A3031 RMK A01 T10221033  RH  092%=      5-min Rain = 0
KAHS 091020Z 32006KT M02/M03 A3031 RMK A01 T10221033  RH  093%=      5-min Rain = 0
KAHS 091021Z 32007KT M02/M03 A3031 RMK A01 T10231033  RH  093%=      5-min Rain = 0
KAHS 091022Z 32006KT M02/M03 A3031 RMK A01 T10231033  RH  093%=      5-min Rain = 0
KAHS 091023Z 32007KT M02/M03 A3031 RMK A01 T10231033  RH  093%=      5-min Rain = 0
KAHS 091024Z 32007KT M02/M03 A3031 RMK A01 T10231033  RH  093%=      5-min Rain = 0
KAHS 091025Z 32007KT M02/M03 A3031 RMK A01 T10231033  RH  093%=      5-min Rain = 0
KAHS 091026Z 32006KT M02/M03 A3031 RMK A01 T10241034  RH  093%=      5-min Rain = 0
KAHS 091027Z 32007KT M02/M03 A3031 RMK A01 T10241034  RH  093%=      5-min Rain = 0
KAHS 091028Z 33006KT M02/M03 A3031 RMK A01 T10241034  RH  093%=      5-min Rain = 0
KAHS 091029Z 32006KT M02/M03 A3031 RMK A01 T10241034  RH  093%=      5-min Rain = 0
KAHS 091030Z 33006KT M02/M03 A3031 RMK A01 T10241034  RH  093%=      5-min Rain = 0
KAHS 091031Z 33006KT M02/M03 A3031 RMK A01 T10241034  RH  093%=      5-min Rain = 0
KAHS 091032Z 33006KT M02/M03 A3031 RMK A01 T10241034  RH  093%=      5-min Rain = 0
KAHS 091033Z 33007KT M02/M03 A3031 RMK A01 T10241034  RH  093%=      5-min Rain = 0
KAHS 091034Z 33006KT M02/M03 A3031 RMK A01 T10241034  RH  093%=      5-min Rain = 0
KAHS 091035Z 33006KT M02/M03 A3031 RMK A01 T10241034  RH  093%=      5-min Rain = 0
KAHS 091036Z 33006KT M02/M03 A3031 RMK A01 T10241034  RH  093%=      5-min Rain = 0
KAHS 091037Z 33006KT M02/M03 A3031 RMK A01 T10241034  RH  093%=      5-min Rain = 0
KAHS 091038Z 33006KT M02/M03 A3031 RMK A01 T10241034  RH  093%=      5-min Rain = 0
KAHS 091039Z 33006KT M02/M03 A3031 RMK A01 T10241034  RH  093%=      5-min Rain = 0
KAHS 091040Z 33005KT M02/M03 A3031 RMK A01 T10241034  RH  093%=      5-min Rain = 0
KAHS 091041Z 33005KT M02/M03 A3031 RMK A01 T10241034  RH  093%=      5-min Rain = 0
KAHS 091042Z 33005KT M03/M04 A3031 RMK A01 T10251035  RH  093%=      5-min Rain = 0
KAHS 091043Z 33005KT M03/M04 A3031 RMK A01 T10251035  RH  093%=      5-min Rain = 0
KAHS 091044Z 33005KT M03/M04 A3031 RMK A01 T10251035  RH  093%=      5-min Rain = 0
KAHS 091045Z 33004KT M03/M04 A3031 RMK A01 T10251035  RH  093%=      5-min Rain = 0
KAHS 091046Z 33005KT M03/M04 A3031 RMK A01 T10251035  RH  093%=      5-min Rain = 0
KAHS 091047Z 33004KT M03/M04 A3031 RMK A01 T10251035  RH  093%=      5-min Rain = 0
KAHS 091048Z 33004KT M03/M04 A3031 RMK A01 T10261035  RH  093%=      5-min Rain = 0
KAHS 091049Z 33005KT M03/M04 A3031 RMK A01 T10261035  RH  093%=      5-min Rain = 0
KAHS 091050Z 33005KT M03/M04 A3031 RMK A01 T10261036  RH  093%=      5-min Rain = 0
KAHS 091051Z 33004KT M03/M04 A3031 RMK A01 T10261036  RH  093%=      5-min Rain = 0
KAHS 091052Z 33004KT M03/M04 A3031 RMK A01 T10261036  RH  093%=      5-min Rain = 0
KAHS 091053Z 33005KT M03/M04 A3031 RMK A01 T10261036  RH  093%=      5-min Rain = 0
KAHS 091054Z 33005KT M03/M04 A3031 RMK A01 T10271036  RH  093%=      5-min Rain = 0
KAHS 091055Z 32005KT M03/M04 A3031 RMK A01 T10271036  RH  093%=      5-min Rain = 0
KAHS 091056Z 32004KT M03/M04 A3031 RMK A01 T10271036  RH  093%=      5-min Rain = 0
KAHS 091057Z 32005KT M03/M04 A3031 RMK A01 T10271036  RH  093%=      5-min Rain = 0
KAHS 091058Z 33005KT M03/M04 A3031 RMK A01 T10271036  RH  093%=      5-min Rain = 0
KAHS 091059Z 33005KT M03/M04 A3031 RMK A01 T10271036  RH  094%=      5-min Rain = 0
KAHS 091100Z 32005KT M03/M04 A3032 RMK A01 T10271036  RH  094%=      5-min Rain = 0
KAHS 091101Z 32004KT M03/M04 A3032 RMK A01 T10271036  RH  094%=      5-min Rain = 0
KAHS 091102Z 32004KT M03/M04 A3032 RMK A01 T10271036  RH  094%=      5-min Rain = 0
KAHS 091103Z 32004KT M03/M04 A3032 RMK A01 T10271036  RH  094%=      5-min Rain = 0
KAHS 091104Z 32004KT M03/M04 A3032 RMK A01 T10281037  RH  094%=      5-min Rain = 0
KAHS 091105Z 32004KT M03/M04 A3032 RMK A01 T10281037  RH  094%=      5-min Rain = 0
KAHS 091106Z 33004KT M03/M04 A3032 RMK A01 T10281037  RH  094%=      5-min Rain = 0
KAHS 091107Z 33004KT M03/M04 A3032 RMK A01 T10281037  RH  094%=      5-min Rain = 0
KAHS 091108Z 33004KT M03/M04 A3032 RMK A01 T10281037  RH  094%=      5-min Rain = 0
KAHS 091109Z 33004KT M03/M04 A3032 RMK A01 T10281037  RH  094%=      5-min Rain = 0
KAHS 091110Z 33004KT M03/M04 A3032 RMK A01 T10281037  RH  094%=      5-min Rain = 0
KAHS 091111Z 33004KT M03/M04 A3032 RMK A01 T10281037  RH  094%=      5-min Rain = 0
KAHS 091112Z 33003KT M03/M04 A3032 RMK A01 T10281037  RH  094%=      5-min Rain = 0
KAHS 091113Z 33004KT M03/M04 A3032 RMK A01 T10281037  RH  094%=      5-min Rain = 0
KAHS 091114Z 33003KT M03/M04 A3032 RMK A01 T10281037  RH  094%=      5-min Rain = 0
KAHS 091115Z 34003KT M03/M04 A3032 RMK A01 T10281037  RH  094%=      5-min Rain = 0
KAHS 091116Z 33002KT M03/M04 A3032 RMK A01 T10281037  RH  094%=      5-min Rain = 0
KAHS 091117Z 33003KT M03/M04 A3032 RMK A01 T10281037  RH  094%=      5-min Rain = 0
KAHS 091118Z 33002KT M03/M04 A3032 RMK A01 T10281037  RH  094%=      5-min Rain = 0
KAHS 091119Z 34003KT M03/M04 A3032 RMK A01 T10281037  RH  094%=      5-min Rain = 0
KAHS 091120Z 34003KT M03/M04 A3032 RMK A01 T10281037  RH  094%=      5-min Rain = 0
KAHS 091121Z 34002KT M03/M04 A3032 RMK A01 T10281037  RH  094%=      5-min Rain = 0
KAHS 091122Z 34002KT M03/M04 A3032 RMK A01 T10281037  RH  094%=      5-min Rain = 0
KAHS 091123Z 33002KT M03/M04 A3032 RMK A01 T10281037  RH  094%=      5-min Rain = 0
KAHS 091124Z 34002KT M03/M04 A3032 RMK A01 T10281037  RH  094%=      5-min Rain = 0
KAHS 091125Z 35003KT M03/M04 A3032 RMK A01 T10281037  RH  094%=      5-min Rain = 0
KAHS 091126Z 35002KT M03/M04 A3032 RMK A01 T10281037  RH  094%=      5-min Rain = 0
KAHS 091127Z 35002KT M03/M04 A3032 RMK A01 T10281037  RH  094%=      5-min Rain = 0
KAHS 091128Z 35002KT M03/M04 A3032 RMK A01 T10281037  RH  094%=      5-min Rain = 0
KAHS 091129Z 35003KT M03/M04 A3032 RMK A01 T10281037  RH  094%=      5-min Rain = 0
KAHS 091130Z 35003KT M03/M04 A3032 RMK A01 T10281037  RH  094%=      5-min Rain = 0
KAHS 091131Z 36003KT M03/M04 A3032 RMK A01 T10281037  RH  094%=      5-min Rain = 0
KAHS 091132Z 35003KT M03/M04 A3032 RMK A01 T10281037  RH  094%=      5-min Rain = 0
KAHS 091133Z 36002KT M03/M04 A3032 RMK A01 T10281037  RH  094%=      5-min Rain = 0
KAHS 091134Z 36002KT M03/M04 A3032 RMK A01 T10281037  RH  093%=      5-min Rain = 0
KAHS 091135Z 00003KT M03/M04 A3032 RMK A01 T10281038  RH  093%=      5-min Rain = 0
KAHS 091136Z 01002KT M03/M04 A3032 RMK A01 T10281038  RH  093%=      5-min Rain = 0
KAHS 091137Z 00002KT M03/M04 A3032 RMK A01 T10281038  RH  093%=      5-min Rain = 0
KAHS 091138Z 01003KT M03/M04 A3032 RMK A01 T10291038  RH  093%=      5-min Rain = 0
KAHS 091139Z 02003KT M03/M04 A3032 RMK A01 T10291038  RH  093%=      5-min Rain = 0
KAHS 091140Z 02003KT M03/M04 A3033 RMK A01 T10291038  RH  093%=      5-min Rain = 0
KAHS 091141Z 03002KT M03/M04 A3033 RMK A01 T10291039  RH  093%=      5-min Rain = 0
KAHS 091142Z 04002KT M03/M04 A3033 RMK A01 T10301039  RH  093%=      5-min Rain = 0
KAHS 091143Z 06001KT M03/M04 A3033 RMK A01 T10301039  RH  093%=      5-min Rain = 0
KAHS 091144Z 09001KT M03/M04 A3033 RMK A01 T10301039  RH  093%=      5-min Rain = 0
KAHS 091145Z 09001KT M03/M04 A3033 RMK A01 T10301040  RH  093%=      5-min Rain = 0
KAHS 091146Z 11002KT M03/M04 A3033 RMK A01 T10301039  RH  093%=      5-min Rain = 0
KAHS 091147Z 11002KT M03/M04 A3033 RMK A01 T10311040  RH  093%=      5-min Rain = 0
KAHS 091148Z 10002KT M03/M04 A3033 RMK A01 T10311040  RH  093%=      5-min Rain = 0
KAHS 091149Z 09001KT M03/M04 A3033 RMK A01 T10321041  RH  093%=      5-min Rain = 0
KAHS 091150Z 08001KT M03/M04 A3033 RMK A01 T10321041  RH  094%=      5-min Rain = 0
KAHS 091151Z 07001KT M03/M04 A3033 RMK A01 T10321041  RH  094%=      5-min Rain = 0
KAHS 091152Z 00000KT M03/M04 A3033 RMK A01 T10331041  RH  094%=      5-min Rain = 0
KAHS 091153Z 05000KT M03/M04 A3033 RMK A01 T10331042  RH  094%=      5-min Rain = 0
KAHS 091154Z 05001KT M03/M04 A3033 RMK A01 T10331042  RH  094%=      5-min Rain = 0
KAHS 091155Z 03002KT M03/M04 A3033 RMK A01 T10331041  RH  094%=      5-min Rain = 0
KAHS 091156Z 02001KT M03/M04 A3033 RMK A01 T10321041  RH  094%=      5-min Rain = 0
KAHS 091157Z 01002KT M03/M04 A3033 RMK A01 T10321041  RH  094%=      5-min Rain = 0
KAHS 091158Z 02002KT M03/M04 A3033 RMK A01 T10321040  RH  094%=      5-min Rain = 0
KAHS 091159Z 01003KT M03/M04 A3033 RMK A01 T10331041  RH  094%=      5-min Rain = 0
KAHS 091200Z 01002KT M03/M04 A3033 RMK A01 T10331041  RH  094%=      5-min Rain = 0
KAHS 091201Z 01002KT M03/M04 A3033 RMK A01 T10331041  RH  094%=      5-min Rain = 0
KAHS 091202Z 00003KT M03/M04 A3033 RMK A01 T10331041  RH  094%=      5-min Rain = 0
KAHS 091203Z 36002KT M03/M04 A3033 RMK A01 T10331041  RH  094%=      5-min Rain = 0
KAHS 091204Z 36002KT M03/M04 A3033 RMK A01 T10321041  RH  094%=      5-min Rain = 0
KAHS 091205Z 36003KT M03/M04 A3033 RMK A01 T10321041  RH  094%=      5-min Rain = 0
KAHS 091206Z 35003KT M03/M04 A3033 RMK A01 T10321041  RH  094%=      5-min Rain = 0
KAHS 091207Z 35003KT M03/M04 A3033 RMK A01 T10321041  RH  094%=      5-min Rain = 0
KAHS 091208Z 35003KT M03/M04 A3033 RMK A01 T10321041  RH  094%=      5-min Rain = 0
KAHS 091209Z 36004KT M03/M04 A3033 RMK A01 T10321041  RH  094%=      5-min Rain = 0
KAHS 091210Z 35004KT M03/M04 A3033 RMK A01 T10321041  RH  094%=      5-min Rain = 0
KAHS 091211Z 35004KT M03/M04 A3034 RMK A01 T10321041  RH  094%=      5-min Rain = 0
KAHS 091212Z 35004KT M03/M04 A3034 RMK A01 T10321041  RH  093%=      5-min Rain = 0
KAHS 091213Z 35004KT M03/M04 A3034 RMK A01 T10321041  RH  093%=      5-min Rain = 0
KAHS 091214Z 35004KT M03/M04 A3034 RMK A01 T10321041  RH  093%=      5-min Rain = 0
KAHS 091215Z 35005KT M03/M04 A3034 RMK A01 T10321041  RH  093%=      5-min Rain = 0
KAHS 091216Z 35004KT M03/M04 A3034 RMK A01 T10321041  RH  093%=      5-min Rain = 0
KAHS 091217Z 35004KT M03/M04 A3034 RMK A01 T10321041  RH  093%=      5-min Rain = 0
KAHS 091218Z 35004KT M03/M04 A3034 RMK A01 T10321042  RH  093%=      5-min Rain = 0
KAHS 091219Z 35005KT M03/M04 A3034 RMK A01 T10321042  RH  093%=      5-min Rain = 0
KAHS 091220Z 35004KT M03/M04 A3034 RMK A01 T10321042  RH  093%=      5-min Rain = 0
KAHS 091221Z 34005KT M03/M04 A3034 RMK A01 T10321042  RH  093%=      5-min Rain = 0
KAHS 091222Z 34004KT M03/M04 A3034 RMK A01 T10321042  RH  093%=      5-min Rain = 0
KAHS 091223Z 34004KT M03/M04 A3034 RMK A01 T10321042  RH  093%=      5-min Rain = 0
KAHS 091224Z 34004KT M03/M04 A3034 RMK A01 T10331043  RH  093%=      5-min Rain = 0
KAHS 091225Z 34004KT M03/M04 A3034 RMK A01 T10331043  RH  093%=      5-min Rain = 0
KAHS 091226Z 34004KT M03/M04 A3034 RMK A01 T10331043  RH  093%=      5-min Rain = 0
KAHS 091227Z 34003KT M03/M04 A3034 RMK A01 T10331043  RH  093%=      5-min Rain = 0
KAHS 091228Z 34003KT M03/M04 A3034 RMK A01 T10341044  RH  093%=      5-min Rain = 0
KAHS 091229Z 34003KT M03/M04 A3034 RMK A01 T10341044  RH  093%=      5-min Rain = 0
KAHS 091230Z 34003KT M03/M04 A3034 RMK A01 T10341044  RH  093%=      5-min Rain = 0
KAHS 091231Z 34003KT M04/M05 A3034 RMK A01 T10351045  RH  093%=      5-min Rain = 0
KAHS 091232Z 33002KT M04/M05 A3034 RMK A01 T10351045  RH  093%=      5-min Rain = 0
KAHS 091233Z 33002KT M04/M05 A3034 RMK A01 T10351045  RH  093%=      5-min Rain = 0
KAHS 091234Z 34002KT M04/M05 A3035 RMK A01 T10351045  RH  093%=      5-min Rain = 0
KAHS 091235Z 34002KT M04/M05 A3035 RMK A01 T10351045  RH  093%=      5-min Rain = 0
KAHS 091236Z 34002KT M04/M05 A3035 RMK A01 T10351045  RH  093%=      5-min Rain = 0
KAHS 091237Z 34003KT M04/M05 A3035 RMK A01 T10361045  RH  093%=      5-min Rain = 0
KAHS 091238Z 34003KT M04/M05 A3035 RMK A01 T10361045  RH  093%=      5-min Rain = 0
KAHS 091239Z 34002KT M04/M05 A3035 RMK A01 T10361045  RH  093%=      5-min Rain = 0
KAHS 091240Z 34002KT M04/M05 A3035 RMK A01 T10351045  RH  093%=      5-min Rain = 0
KAHS 091241Z 34002KT M04/M05 A3035 RMK A01 T10361045  RH  093%=      5-min Rain = 0
KAHS 091242Z 35002KT M04/M05 A3035 RMK A01 T10361045  RH  093%=      5-min Rain = 0
KAHS 091243Z 35003KT M04/M05 A3035 RMK A01 T10351045  RH  093%=      5-min Rain = 0
KAHS 091244Z 35003KT M04/M04 A3035 RMK A01 T10351044  RH  094%=      5-min Rain = 0
KAHS 091245Z 35003KT M04/M05 A3035 RMK A01 T10351045  RH  094%=      5-min Rain = 0
KAHS 091246Z 35003KT M04/M04 A3035 RMK A01 T10351044  RH  094%=      5-min Rain = 0
KAHS 091247Z 35003KT M04/M04 A3035 RMK A01 T10351044  RH  094%=      5-min Rain = 0
KAHS 091248Z 35003KT M04/M04 A3035 RMK A01 T10351044  RH  094%=      5-min Rain = 0
KAHS 091249Z 34003KT M04/M04 A3035 RMK A01 T10351044  RH  093%=      5-min Rain = 0
KAHS 091250Z 34002KT M04/M04 A3035 RMK A01 T10351044  RH  094%=      5-min Rain = 0
KAHS 091251Z 34003KT M04/M04 A3035 RMK A01 T10351044  RH  094%=      5-min Rain = 0
KAHS 091252Z 34002KT M04/M04 A3035 RMK A01 T10351044  RH  094%=      5-min Rain = 0
KAHS 091253Z 34002KT M04/M05 A3035 RMK A01 T10361045  RH  093%=      5-min Rain = 0
KAHS 091254Z 34002KT M04/M05 A3035 RMK A01 T10351045  RH  093%=      5-min Rain = 0
KAHS 091255Z 33002KT M04/M05 A3035 RMK A01 T10351045  RH  093%=      5-min Rain = 0
KAHS 091256Z 32001KT M04/M05 A3035 RMK A01 T10361045  RH  093%=      5-min Rain = 0
KAHS 091257Z 34002KT M04/M05 A3035 RMK A01 T10361045  RH  093%=      5-min Rain = 0
KAHS 091258Z 34002KT M04/M05 A3035 RMK A01 T10361045  RH  093%=      5-min Rain = 0
KAHS 091259Z 33002KT M04/M05 A3035 RMK A01 T10361045  RH  093%=      5-min Rain = 0
KAHS 091300Z 33002KT M04/M05 A3035 RMK A01 T10361045  RH  093%=      5-min Rain = 0
KAHS 091301Z 33002KT M04/M05 A3035 RMK A01 T10361045  RH  093%=      5-min Rain = 0
KAHS 091302Z 31002KT M04/M05 A3035 RMK A01 T10361046  RH  093%=      5-min Rain = 0
KAHS 091303Z 30001KT M04/M05 A3035 RMK A01 T10361045  RH  093%=      5-min Rain = 0
KAHS 091304Z 27001KT M04/M05 A3035 RMK A01 T10361046  RH  093%=      5-min Rain = 0
KAHS 091305Z 27001KT M04/M05 A3035 RMK A01 T10361046  RH  093%=      5-min Rain = 0
KAHS 091306Z 27001KT M04/M05 A3035 RMK A01 T10371047  RH  093%=      5-min Rain = 0
KAHS 091307Z 27001KT M04/M05 A3035 RMK A01 T10371047  RH  093%=      5-min Rain = 0
KAHS 091308Z 27001KT M04/M05 A3035 RMK A01 T10381048  RH  093%=      5-min Rain = 0
KAHS 091309Z 27001KT M04/M05 A3035 RMK A01 T10381048  RH  093%=      5-min Rain = 0
KAHS 091310Z 27001KT M04/M05 A3035 RMK A01 T10381047  RH  093%=      5-min Rain = 0
KAHS 091311Z 27000KT M04/M05 A3035 RMK A01 T10371047  RH  093%=      5-min Rain = 0
KAHS 091312Z 25001KT M04/M05 A3036 RMK A01 T10371046  RH  094%=      5-min Rain = 0
KAHS 091313Z 26001KT M04/M05 A3036 RMK A01 T10371046  RH  094%=      5-min Rain = 0
KAHS 091314Z 25001KT M04/M05 A3036 RMK A01 T10361045  RH  094%=      5-min Rain = 0
KAHS 091315Z 23002KT M04/M05 A3036 RMK A01 T10371046  RH  094%=      5-min Rain = 0
KAHS 091316Z 25001KT M04/M05 A3036 RMK A01 T10371046  RH  094%=      5-min Rain = 0
KAHS 091317Z 24002KT M04/M05 A3036 RMK A01 T10361045  RH  094%=      5-min Rain = 0
KAHS 091318Z 25002KT M04/M05 A3036 RMK A01 T10361045  RH  094%=      5-min Rain = 0
KAHS 091319Z 26003KT M04/M05 A3036 RMK A01 T10371046  RH  093%=      5-min Rain = 0
KAHS 091320Z 29003KT M04/M05 A3036 RMK A01 T10381047  RH  093%=      5-min Rain = 0
KAHS 091321Z 28003KT M04/M05 A3036 RMK A01 T10371047  RH  093%=      5-min Rain = 0
KAHS 091322Z 28003KT M04/M05 A3036 RMK A01 T10371047  RH  093%=      5-min Rain = 0
KAHS 091323Z 30003KT M04/M05 A3036 RMK A01 T10371047  RH  093%=      5-min Rain = 0
KAHS 091324Z 31003KT M04/M05 A3036 RMK A01 T10371046  RH  093%=      5-min Rain = 0
KAHS 091325Z 30002KT M04/M05 A3036 RMK A01 T10371046  RH  093%=      5-min Rain = 0
KAHS 091326Z 30003KT M04/M05 A3036 RMK A01 T10371046  RH  093%=      5-min Rain = 0
KAHS 091327Z 31003KT M04/M05 A3036 RMK A01 T10371046  RH  093%=      5-min Rain = 0
KAHS 091328Z 30002KT M04/M05 A3036 RMK A01 T10371046  RH  093%=      5-min Rain = 0
KAHS 091329Z 29003KT M04/M05 A3036 RMK A01 T10371047  RH  093%=      5-min Rain = 0
KAHS 091330Z 30003KT M04/M05 A3036 RMK A01 T10371047  RH  093%=      5-min Rain = 0
KAHS 091331Z 28002KT M04/M05 A3036 RMK A01 T10371047  RH  093%=      5-min Rain = 0
KAHS 091332Z 27002KT M04/M05 A3036 RMK A01 T10371047  RH  093%=      5-min Rain = 0
KAHS 091333Z 28002KT M04/M05 A3036 RMK A01 T10371047  RH  093%=      5-min Rain = 0
KAHS 091334Z 27001KT M04/M05 A3036 RMK A01 T10381048  RH  093%=      5-min Rain = 0
KAHS 091335Z 26002KT M04/M05 A3036 RMK A01 T10381048  RH  093%=      5-min Rain = 0
KAHS 091336Z 25002KT M04/M05 A3036 RMK A01 T10381048  RH  093%=      5-min Rain = 0
KAHS 091337Z 25002KT M04/M05 A3036 RMK A01 T10391048  RH  093%=      5-min Rain = 0
KAHS 091338Z 25002KT M04/M05 A3036 RMK A01 T10391049  RH  093%=      5-min Rain = 0
KAHS 091339Z 25002KT M04/M05 A3036 RMK A01 T10391049  RH  093%=      5-min Rain = 0
KAHS 091340Z 25002KT M04/M05 A3036 RMK A01 T10391049  RH  093%=      5-min Rain = 0
KAHS 091341Z 25002KT M04/M05 A3036 RMK A01 T10401049  RH  093%=      5-min Rain = 0
KAHS 091342Z 25002KT M04/M05 A3037 RMK A01 T10401049  RH  093%=      5-min Rain = 0
KAHS 091343Z 25001KT M04/M05 A3037 RMK A01 T10401049  RH  093%=      5-min Rain = 0
KAHS 091344Z 25001KT M04/M05 A3037 RMK A01 T10401049  RH  093%=      5-min Rain = 0
KAHS 091345Z 25001KT M04/M05 A3037 RMK A01 T10391048  RH  094%=      5-min Rain = 0
KAHS 091346Z 26001KT M04/M05 A3037 RMK A01 T10391048  RH  094%=      5-min Rain = 0
KAHS 091347Z 26002KT M04/M05 A3037 RMK A01 T10391047  RH  094%=      5-min Rain = 0
KAHS 091348Z 27002KT M04/M05 A3037 RMK A01 T10381047  RH  094%=      5-min Rain = 0
KAHS 091349Z 27003KT M04/M05 A3037 RMK A01 T10381047  RH  094%=      5-min Rain = 0
KAHS 091350Z 28003KT M04/M05 A3037 RMK A01 T10381047  RH  094%=      5-min Rain = 0
KAHS 091351Z 28003KT M04/M05 A3037 RMK A01 T10381047  RH  093%=      5-min Rain = 0
KAHS 091352Z 28003KT M04/M05 A3037 RMK A01 T10371047  RH  093%=      5-min Rain = 0
KAHS 091353Z 28003KT M04/M05 A3037 RMK A01 T10371047  RH  093%=      5-min Rain = 0
KAHS 091354Z 29003KT M04/M05 A3037 RMK A01 T10371047  RH  093%=      5-min Rain = 0
KAHS 091355Z 29003KT M04/M05 A3037 RMK A01 T10371047  RH  093%=      5-min Rain = 0
KAHS 091356Z 29003KT M04/M05 A3037 RMK A01 T10371047  RH  093%=      5-min Rain = 0
KAHS 091357Z 29003KT M04/M05 A3037 RMK A01 T10371046  RH  093%=      5-min Rain = 0
KAHS 091358Z 28003KT M04/M05 A3037 RMK A01 T10371047  RH  093%=      5-min Rain = 0
KAHS 091359Z 28003KT M04/M05 A3037 RMK A01 T10361046  RH  093%=      5-min Rain = 0
KAHS 091400Z 28003KT M04/M05 A3037 RMK A01 T10361046  RH  093%=      5-min Rain = 0
KAHS 091401Z 29004KT M04/M05 A3037 RMK A01 T10361046  RH  093%=      5-min Rain = 0
KAHS 091402Z 29004KT M04/M05 A3037 RMK A01 T10351045  RH  093%=      5-min Rain = 0
KAHS 091403Z 29004KT M04/M05 A3037 RMK A01 T10351045  RH  093%=      5-min Rain = 0
KAHS 091404Z 29004KT M04/M05 A3037 RMK A01 T10351045  RH  093%=      5-min Rain = 0
KAHS 091405Z 30004KT M03/M05 A3037 RMK A01 T10341045  RH  093%=      5-min Rain = 0
KAHS 091406Z 30004KT M03/M04 A3037 RMK A01 T10341044  RH  093%=      5-min Rain = 0
KAHS 091407Z 30004KT M03/M04 A3037 RMK A01 T10341044  RH  093%=      5-min Rain = 0
KAHS 091408Z 30004KT M03/M04 A3037 RMK A01 T10331043  RH  093%=      5-min Rain = 0
KAHS 091409Z 31004KT M03/M04 A3037 RMK A01 T10331043  RH  093%=      5-min Rain = 0
KAHS 091410Z 31004KT M03/M04 A3037 RMK A01 T10321043  RH  093%=      5-min Rain = 0
KAHS 091411Z 31004KT M03/M04 A3037 RMK A01 T10311042  RH  092%=      5-min Rain = 0
KAHS 091412Z 31003KT M03/M04 A3037 RMK A01 T10311041  RH  092%=      5-min Rain = 0
KAHS 091413Z 31002KT M03/M04 A3037 RMK A01 T10301041  RH  092%=      5-min Rain = 0
KAHS 091414Z 31002KT M03/M04 A3037 RMK A01 T10291041  RH  092%=      5-min Rain = 0
KAHS 091415Z 31002KT M03/M04 A3038 RMK A01 T10281040  RH  092%=      5-min Rain = 0
KAHS 091416Z 33001KT M03/M04 A3038 RMK A01 T10281039  RH  092%=      5-min Rain = 0
KAHS 091417Z 32002KT M03/M04 A3038 RMK A01 T10271039  RH  092%=      5-min Rain = 0
KAHS 091418Z 30002KT M03/M04 A3038 RMK A01 T10261039  RH  091%=      5-min Rain = 0
KAHS 091419Z 31003KT M03/M04 A3038 RMK A01 T10261039  RH  091%=      5-min Rain = 0
KAHS 091420Z 30003KT M03/M04 A3038 RMK A01 T10261040  RH  091%=      5-min Rain = 0
KAHS 091421Z 30003KT M03/M04 A3038 RMK A01 T10261040  RH  090%=      5-min Rain = 0
KAHS 091422Z 30002KT M03/M04 A3038 RMK A01 T10251039  RH  090%=      5-min Rain = 0
KAHS 091423Z 30002KT M03/M04 A3038 RMK A01 T10251038  RH  090%=      5-min Rain = 0
KAHS 091424Z 30003KT M02/M04 A3038 RMK A01 T10241039  RH  090%=      5-min Rain = 0
KAHS 091425Z 31003KT M02/M04 A3038 RMK A01 T10241039  RH  090%=      5-min Rain = 0
KAHS 091426Z 32002KT M02/M04 A3038 RMK A01 T10241039  RH  090%=      5-min Rain = 0
KAHS 091427Z 31003KT M02/M04 A3038 RMK A01 T10231038  RH  089%=      5-min Rain = 0
KAHS 091428Z 31002KT M02/M04 A3038 RMK A01 T10231037  RH  090%=      5-min Rain = 0
KAHS 091429Z 30002KT M02/M04 A3038 RMK A01 T10221037  RH  090%=      5-min Rain = 0
KAHS 091430Z 30003KT M02/M04 A3038 RMK A01 T10221037  RH  089%=      5-min Rain = 0
KAHS 091431Z 29002KT M02/M04 A3038 RMK A01 T10221037  RH  089%=      5-min Rain = 0
KAHS 091432Z 29002KT M02/M04 A3038 RMK A01 T10211037  RH  089%=      5-min Rain = 0
KAHS 091433Z 29003KT M02/M04 A3038 RMK A01 T10201036  RH  089%=      5-min Rain = 0
KAHS 091434Z 28002KT M02/M04 A3038 RMK A01 T10201036  RH  089%=      5-min Rain = 0
KAHS 091435Z 29003KT M02/M04 A3038 RMK A01 T10201036  RH  089%=      5-min Rain = 0
KAHS 091436Z 29003KT M02/M04 A3038 RMK A01 T10201036  RH  089%=      5-min Rain = 0
KAHS 091437Z 29003KT M02/M04 A3038 RMK A01 T10201036  RH  089%=      5-min Rain = 0
KAHS 091438Z 28003KT M02/M04 A3038 RMK A01 T10201037  RH  088%=      5-min Rain = 0
KAHS 091439Z 29002KT M02/M04 A3038 RMK A01 T10201036  RH  089%=      5-min Rain = 0
KAHS 091440Z 27002KT M02/M04 A3038 RMK A01 T10191035  RH  089%=      5-min Rain = 0
KAHS 091441Z 29002KT M02/M04 A3038 RMK A01 T10191035  RH  089%=      5-min Rain = 0
KAHS 091442Z 28002KT M02/M03 A3038 RMK A01 T10191034  RH  089%=      5-min Rain = 0
KAHS 091443Z 29002KT M02/M04 A3038 RMK A01 T10191035  RH  089%=      5-min Rain = 0
KAHS 091444Z 29003KT M02/M04 A3038 RMK A01 T10191035  RH  089%=      5-min Rain = 0
KAHS 091445Z 29003KT M02/M04 A3038 RMK A01 T10181035  RH  089%=      5-min Rain = 0
KAHS 091446Z 30003KT M02/M04 A3039 RMK A01 T10191035  RH  089%=      5-min Rain = 0
KAHS 091447Z 29003KT M02/M04 A3039 RMK A01 T10191036  RH  089%=      5-min Rain = 0
KAHS 091448Z 29003KT M02/M04 A3039 RMK A01 T10191035  RH  089%=      5-min Rain = 0
KAHS 091449Z 29003KT M02/M04 A3039 RMK A01 T10191035  RH  089%=      5-min Rain = 0
KAHS 091450Z 30003KT M02/M03 A3039 RMK A01 T10181034  RH  089%=      5-min Rain = 0
KAHS 091451Z 30003KT M02/M03 A3039 RMK A01 T10181033  RH  089%=      5-min Rain = 0
KAHS 091452Z 31003KT M02/M03 A3039 RMK A01 T10181034  RH  089%=      5-min Rain = 0
KAHS 091453Z 32004KT M02/M03 A3039 RMK A01 T10181034  RH  089%=      5-min Rain = 0
KAHS 091454Z 32004KT M02/M03 A3039 RMK A01 T10181034  RH  089%=      5-min Rain = 0
KAHS 091455Z 32005KT M02/M03 A3039 RMK A01 T10181034  RH  089%=      5-min Rain = 0
KAHS 091456Z 32004KT M02/M04 A3039 RMK A01 T10181036  RH  088%=      5-min Rain = 0
KAHS 091457Z 32004KT M02/M04 A3039 RMK A01 T10181035  RH  088%=      5-min Rain = 0
KAHS 091458Z 31005KT M02/M03 A3039 RMK A01 T10171034  RH  089%=      5-min Rain = 0
KAHS 091459Z 32004KT M02/M04 A3039 RMK A01 T10181035  RH  088%=      5-min Rain = 0
KAHS 091500Z 31004KT M02/M03 A3039 RMK A01 T10171033  RH  089%=      5-min Rain = 0
KAHS 091501Z 32004KT M02/M03 A3039 RMK A01 T10171033  RH  089%=      5-min Rain = 0
KAHS 091502Z 32004KT M02/M03 A3039 RMK A01 T10171034  RH  088%=      5-min Rain = 0
KAHS 091503Z 31004KT M02/M03 A3039 RMK A01 T10161033  RH  088%=      5-min Rain = 0
KAHS 091504Z 31003KT M02/M03 A3039 RMK A01 T10161033  RH  088%=      5-min Rain = 0
KAHS 091505Z 31004KT M01/M03 A3039 RMK A01 T10141031  RH  088%=      5-min Rain = 0
KAHS 091506Z 31004KT M01/M03 A3039 RMK A01 T10141031  RH  088%=      5-min Rain = 0
KAHS 091507Z 30004KT M01/M03 A3039 RMK A01 T10141032  RH  088%=      5-min Rain = 0
KAHS 091508Z 30003KT M01/M03 A3039 RMK A01 T10131030  RH  088%=      5-min Rain = 0
KAHS 091509Z 29003KT M01/M03 A3039 RMK A01 T10121029  RH  088%=      5-min Rain = 0
KAHS 091510Z 29003KT M01/M03 A3039 RMK A01 T10121029  RH  088%=      5-min Rain = 0
KAHS 091511Z 29004KT M01/M03 A304 RMK A01 T10121029  RH  088%=      5-min Rain = 0
KAHS 091512Z 30004KT M01/M03 A304 RMK A01 T10121030  RH  087%=      5-min Rain = 0
KAHS 091513Z 30003KT M01/M03 A304 RMK A01 T10121031  RH  087%=      5-min Rain = 0
KAHS 091514Z 30004KT M01/M03 A304 RMK A01 T10111029  RH  087%=      5-min Rain = 0
KAHS 091515Z 30004KT M01/M03 A304 RMK A01 T10111030  RH  087%=      5-min Rain = 0
KAHS 091516Z 31004KT M01/M03 A304 RMK A01 T10111031  RH  087%=      5-min Rain = 0
KAHS 091517Z 30004KT M01/M03 A304 RMK A01 T10101029  RH  087%=      5-min Rain = 0
KAHS 091518Z 31003KT M01/M03 A304 RMK A01 T10101029  RH  087%=      5-min Rain = 0
KAHS 091519Z 30004KT M01/M03 A304 RMK A01 T10091028  RH  087%=      5-min Rain = 0
KAHS 091520Z 30004KT M01/M03 A304 RMK A01 T10091030  RH  085%=      5-min Rain = 0
KAHS 091521Z 30004KT M01/M03 A304 RMK A01 T10091031  RH  085%=      5-min Rain = 0
KAHS 091522Z 31004KT M01/M03 A304 RMK A01 T10081031  RH  085%=      5-min Rain = 0
KAHS 091523Z 33004KT M01/M03 A304 RMK A01 T10081033  RH  083%=      5-min Rain = 0
KAHS 091524Z 31003KT M01/M03 A304 RMK A01 T10081033  RH  083%=      5-min Rain = 0
KAHS 091525Z 31003KT M01/M03 A304 RMK A01 T10081034  RH  083%=      5-min Rain = 0
KAHS 091526Z 31002KT M01/M04 A304 RMK A01 T10081035  RH  082%=      5-min Rain = 0
KAHS 091527Z 32002KT M01/M03 A304 RMK A01 T10061032  RH  083%=      5-min Rain = 0
KAHS 091528Z 32003KT M01/M03 A304 RMK A01 T10051030  RH  083%=      5-min Rain = 0
KAHS 091529Z 32004KT M01/M03 A304 RMK A01 T10051032  RH  082%=      5-min Rain = 0
KAHS 091530Z 32003KT M00/M03 A304 RMK A01 T10041033  RH  081%=      5-min Rain = 0
KAHS 091531Z 32003KT M01/M04 A304 RMK A01 T10051036  RH  080%=      5-min Rain = 0
KAHS 091532Z 29003KT M01/M04 A304 RMK A01 T10051035  RH  080%=      5-min Rain = 0
KAHS 091533Z 31003KT M00/M03 A304 RMK A01 T10031032  RH  081%=      5-min Rain = 0
KAHS 091534Z 31003KT M00/M03 A304 RMK A01 T10031031  RH  081%=      5-min Rain = 0
KAHS 091535Z 31002KT M00/M03 A304 RMK A01 T10031033  RH  080%=      5-min Rain = 0
KAHS 091536Z 30003KT M00/M03 A304 RMK A01 T10021032  RH  080%=      5-min Rain = 0
KAHS 091537Z 31003KT M00/M03 A304 RMK A01 T10021033  RH  079%=      5-min Rain = 0
KAHS 091538Z 30002KT M00/M03 A304 RMK A01 T10021034  RH  079%=      5-min Rain = 0
KAHS 091539Z 30003KT M00/M03 A304 RMK A01 T10011033  RH  079%=      5-min Rain = 0
KAHS 091540Z 33003KT M00/M03 A304 RMK A01 T10011033  RH  079%=      5-min Rain = 0
KAHS 091541Z 34002KT 00/03 A304 RMK A01 T00000-31  RH  080%=      5-min Rain = 0
KAHS 091542Z 32002KT 00/M03 A304 RMK A01 T00011031  RH  079%=      5-min Rain = 0
KAHS 091543Z 29002KT 00/M03 A304 RMK A01 T00011029  RH  080%=      5-min Rain = 0
KAHS 091544Z 28003KT 00/M03 A304 RMK A01 T00011029  RH  080%=      5-min Rain = 0
KAHS 091545Z 29002KT 00/03 A304 RMK A01 T00000-31  RH  080%=      5-min Rain = 0
KAHS 091546Z 28003KT 00/03 A304 RMK A01 T00000-29  RH  080%=      5-min Rain = 0
KAHS 091547Z 28002KT 00/M03 A304 RMK A01 T00011028  RH  081%=      5-min Rain = 0
KAHS 091548Z 31002KT 00/M03 A304 RMK A01 T00011030  RH  080%=      5-min Rain = 0
KAHS 091549Z 29002KT 00/M03 A304 RMK A01 T00021029  RH  080%=      5-min Rain = 0
KAHS 091550Z 29002KT 00/M03 A304 RMK A01 T00021028  RH  080%=      5-min Rain = 0
KAHS 091551Z 29003KT 00/M03 A3041 RMK A01 T00021029  RH  079%=      5-min Rain = 0
KAHS 091552Z 27002KT 00/M03 A3041 RMK A01 T00021032  RH  078%=      5-min Rain = 0
KAHS 091553Z 28002KT 00/M03 A3041 RMK A01 T00021032  RH  078%=      5-min Rain = 0
KAHS 091554Z 31001KT 00/M03 A3041 RMK A01 T00021032  RH  078%=      5-min Rain = 0
KAHS 091555Z 29002KT 00/M03 A3041 RMK A01 T00041031  RH  078%=      5-min Rain = 0
KAHS 091556Z 33003KT 01/M03 A3041 RMK A01 T00051028  RH  078%=      5-min Rain = 0
KAHS 091557Z 34002KT 00/M03 A3041 RMK A01 T00041032  RH  077%=      5-min Rain = 0
KAHS 091558Z 00001KT 00/M03 A3041 RMK A01 T00041032  RH  077%=      5-min Rain = 0
KAHS 091559Z 34001KT 01/M03 A3041 RMK A01 T00051029  RH  077%=      5-min Rain = 0
KAHS 091600Z 32002KT 01/M03 A3041 RMK A01 T00071027  RH  078%=      5-min Rain = 0
KAHS 091601Z 32002KT 01/M03 A3041 RMK A01 T00061030  RH  077%=      5-min Rain = 0
KAHS 091602Z 29002KT 01/M03 A3041 RMK A01 T00061031  RH  076%=      5-min Rain = 0
KAHS 091603Z 31000KT 01/M03 A3041 RMK A01 T00061033  RH  075%=      5-min Rain = 0
KAHS 091604Z 34001KT 01/M03 A3041 RMK A01 T00081031  RH  075%=      5-min Rain = 0
KAHS 091605Z 33002KT 01/M03 A3041 RMK A01 T00091030  RH  075%=      5-min Rain = 0
KAHS 091606Z 33001KT 01/M03 A3041 RMK A01 T00091031  RH  075%=      5-min Rain = 0
KAHS 091607Z 31001KT 01/M03 A3041 RMK A01 T00101030  RH  075%=      5-min Rain = 0
KAHS 091608Z 33001KT 01/M03 A3041 RMK A01 T00091030  RH  075%=      5-min Rain = 0
KAHS 091609Z 32003KT 01/M03 A3041 RMK A01 T00111027  RH  076%=      5-min Rain = 0
KAHS 091610Z 32003KT 01/M03 A3042 RMK A01 T00091032  RH  074%=      5-min Rain = 0
KAHS 091611Z 34002KT 01/M03 A3042 RMK A01 T00081034  RH  074%=      5-min Rain = 0
KAHS 091612Z 35001KT 01/M04 A3042 RMK A01 T00081035  RH  073%=      5-min Rain = 0
KAHS 091613Z 34003KT 01/M03 A3042 RMK A01 T00091034  RH  073%=      5-min Rain = 0
KAHS 091614Z 35003KT 01/M03 A3042 RMK A01 T00101031  RH  074%=      5-min Rain = 0
KAHS 091615Z 32002KT 01/M03 A3042 RMK A01 T00101033  RH  073%=      5-min Rain = 0
KAHS 091616Z 29001KT 01/M03 A3042 RMK A01 T00111030  RH  074%=      5-min Rain = 0
KAHS 091617Z 28002KT 01/M03 A3042 RMK A01 T00121029  RH  074%=      5-min Rain = 0
KAHS 091618Z 28002KT 01/M03 A3042 RMK A01 T00121029  RH  074%=      5-min Rain = 0
KAHS 091619Z 32003KT 01/M03 A3042 RMK A01 T00131027  RH  075%=      5-min Rain = 0
KAHS 091620Z 33003KT 01/M03 A3042 RMK A01 T00131029  RH  073%=      5-min Rain = 0
KAHS 091621Z 31003KT 01/M03 A3042 RMK A01 T00121033  RH  072%=      5-min Rain = 0
KAHS 091622Z 31002KT 01/M03 A3042 RMK A01 T00121031  RH  073%=      5-min Rain = 0
KAHS 091623Z 31003KT 01/M03 A3042 RMK A01 T00121029  RH  074%=      5-min Rain = 0
KAHS 091624Z 33003KT 01/M03 A3042 RMK A01 T00141027  RH  074%=      5-min Rain = 0
KAHS 091625Z 31003KT 01/M03 A3042 RMK A01 T00141029  RH  073%=      5-min Rain = 0
KAHS 091626Z 31003KT 01/M03 A3042 RMK A01 T00141033  RH  071%=      5-min Rain = 0
KAHS 091627Z 30002KT 01/M03 A3042 RMK A01 T00131034  RH  071%=      5-min Rain = 0
KAHS 091628Z 31003KT 01/M03 A3042 RMK A01 T00141031  RH  072%=      5-min Rain = 0
KAHS 091629Z 34004KT 02/M03 A3042 RMK A01 T00151027  RH  073%=      5-min Rain = 0
KAHS 091630Z 34003KT 02/M03 A3042 RMK A01 T00151030  RH  072%=      5-min Rain = 0
KAHS 091631Z 30002KT 02/M03 A3042 RMK A01 T00151028  RH  073%=      5-min Rain = 0
KAHS 091632Z 33002KT 02/M03 A3042 RMK A01 T00151028  RH  073%=      5-min Rain = 0
KAHS 091633Z 31002KT 02/M03 A3042 RMK A01 T00161027  RH  073%=      5-min Rain = 0
KAHS 091634Z 32004KT 02/M03 A3042 RMK A01 T00171025  RH  073%=      5-min Rain = 0
KAHS 091635Z 32003KT 02/M03 A3042 RMK A01 T00151029  RH  072%=      5-min Rain = 0
KAHS 091636Z 33002KT 02/M03 A3042 RMK A01 T00151029  RH  073%=      5-min Rain = 0
KAHS 091637Z 33002KT 02/M03 A3042 RMK A01 T00151029  RH  073%=      5-min Rain = 0
KAHS 091638Z 28002KT 02/M03 A3042 RMK A01 T00161027  RH  073%=      5-min Rain = 0
KAHS 091639Z 26002KT 02/M03 A3042 RMK A01 T00171026  RH  073%=      5-min Rain = 0
KAHS 091640Z 31003KT 02/M02 A3042 RMK A01 T00181023  RH  074%=      5-min Rain = 0
KAHS 091641Z 33002KT 02/M02 A3042 RMK A01 T00201022  RH  074%=      5-min Rain = 0
KAHS 091642Z 33003KT 02/M02 A3042 RMK A01 T00211024  RH  072%=      5-min Rain = 0
KAHS 091643Z 31001KT 02/M03 A3042 RMK A01 T00211026  RH  071%=      5-min Rain = 0
KAHS 091644Z 32001KT 02/M03 A3042 RMK A01 T00211030  RH  069%=      5-min Rain = 0
KAHS 091645Z 31004KT 02/M03 A3042 RMK A01 T00221029  RH  069%=      5-min Rain = 0
KAHS 091646Z 30003KT 02/M03 A3042 RMK A01 T00201032  RH  068%=      5-min Rain = 0
KAHS 091647Z 32002KT 02/M03 A3042 RMK A01 T00191032  RH  069%=      5-min Rain = 0
KAHS 091648Z 27002KT 02/M03 A3042 RMK A01 T00191029  RH  071%=      5-min Rain = 0
KAHS 091649Z 30003KT 02/M03 A3042 RMK A01 T00201027  RH  071%=      5-min Rain = 0
KAHS 091650Z 27001KT 02/M03 A3042 RMK A01 T00191027  RH  071%=      5-min Rain = 0
KAHS 091651Z 28001KT 02/M03 A3042 RMK A01 T00201026  RH  071%=      5-min Rain = 0
KAHS 091652Z 28004KT 02/M02 A3042 RMK A01 T00221023  RH  072%=      5-min Rain = 0
KAHS 091653Z 29003KT 02/M03 A3042 RMK A01 T00231028  RH  069%=      5-min Rain = 0
KAHS 091654Z 29000KT 02/M03 A3042 RMK A01 T00231030  RH  068%=      5-min Rain = 0
KAHS 091655Z 25001KT 02/M03 A3042 RMK A01 T00231032  RH  067%=      5-min Rain = 0
KAHS 091656Z 25001KT 02/M03 A3042 RMK A01 T00241030  RH  067%=      5-min Rain = 0
KAHS 091657Z 26003KT 03/M03 A3042 RMK A01 T00251025  RH  069%=      5-min Rain = 0
KAHS 091658Z 27004KT 03/M03 A3042 RMK A01 T00261026  RH  068%=      5-min Rain = 0
KAHS 091659Z 29004KT 03/M03 A3041 RMK A01 T00251031  RH  066%=      5-min Rain = 0
KAHS 091700Z 31002KT 03/M03 A3041 RMK A01 T00251034  RH  065%=      5-min Rain = 0
KAHS 091701Z 26001KT 03/M03 A3041 RMK A01 T00261032  RH  066%=      5-min Rain = 0
KAHS 091702Z 29004KT 03/M03 A3041 RMK A01 T00271029  RH  066%=      5-min Rain = 0
KAHS 091703Z 30004KT 03/M03 A3041 RMK A01 T00271033  RH  064%=      5-min Rain = 0
KAHS 091704Z 29003KT 03/M04 A3041 RMK A01 T00261037  RH  063%=      5-min Rain = 0
KAHS 091705Z 27003KT 03/M04 A3041 RMK A01 T00261036  RH  064%=      5-min Rain = 0
KAHS 091706Z 27002KT 03/M04 A3041 RMK A01 T00261036  RH  064%=      5-min Rain = 0
KAHS 091707Z 27003KT 03/M03 A3041 RMK A01 T00281031  RH  065%=      5-min Rain = 0
KAHS 091708Z 27003KT 03/M03 A3041 RMK A01 T00281027  RH  067%=      5-min Rain = 0
KAHS 091709Z 29002KT 03/M03 A3041 RMK A01 T00291025  RH  068%=      5-min Rain = 0
KAHS 091710Z 32003KT 03/M02 A3041 RMK A01 T00311023  RH  068%=      5-min Rain = 0
KAHS 091711Z 34003KT 03/M03 A3041 RMK A01 T00311027  RH  066%=      5-min Rain = 0
KAHS 091712Z 36001KT 03/M03 A3041 RMK A01 T00311029  RH  065%=      5-min Rain = 0
KAHS 091713Z 31002KT 03/M03 A3041 RMK A01 T00321025  RH  066%=      5-min Rain = 0
KAHS 091714Z 30002KT 03/M03 A3041 RMK A01 T00321027  RH  065%=      5-min Rain = 0
KAHS 091715Z 31001KT 03/M03 A3041 RMK A01 T00321029  RH  064%=      5-min Rain = 0
KAHS 091716Z 28002KT 03/M03 A3041 RMK A01 T00341026  RH  065%=      5-min Rain = 0
KAHS 091717Z 30002KT 03/M03 A3041 RMK A01 T00341029  RH  063%=      5-min Rain = 0
KAHS 091718Z 34001KT 04/M03 A3041 RMK A01 T00351028  RH  064%=      5-min Rain = 0
KAHS 091719Z 02002KT 04/M02 A3041 RMK A01 T00361024  RH  065%=      5-min Rain = 0
KAHS 091720Z 36001KT 04/M03 A3041 RMK A01 T00351028  RH  063%=      5-min Rain = 0
KAHS 091721Z 34002KT 04/M03 A3041 RMK A01 T00361027  RH  064%=      5-min Rain = 0
KAHS 091722Z 28003KT 04/M03 A3041 RMK A01 T00361028  RH  063%=      5-min Rain = 0
KAHS 091723Z 30003KT 04/M03 A3041 RMK A01 T00361026  RH  064%=      5-min Rain = 0
KAHS 091724Z 32002KT 04/M03 A3041 RMK A01 T00371027  RH  063%=      5-min Rain = 0
KAHS 091725Z 30003KT 04/M03 A3041 RMK A01 T00361032  RH  061%=      5-min Rain = 0
KAHS 091726Z 32004KT 04/M03 A3041 RMK A01 T00351033  RH  061%=      5-min Rain = 0
KAHS 091727Z 32003KT 03/M04 A3041 RMK A01 T00331035  RH  061%=      5-min Rain = 0
KAHS 091728Z 32002KT 03/M04 A3041 RMK A01 T00321036  RH  061%=      5-min Rain = 0
KAHS 091729Z 34003KT 03/M03 A3041 RMK A01 T00331034  RH  062%=      5-min Rain = 0
KAHS 091730Z 33003KT 03/M03 A3041 RMK A01 T00341033  RH  061%=      5-min Rain = 0
KAHS 091731Z 32002KT 03/M03 A3041 RMK A01 T00341031  RH  062%=      5-min Rain = 0
KAHS 091732Z 29002KT 04/M03 A3041 RMK A01 T00351030  RH  062%=      5-min Rain = 0
KAHS 091733Z 25000KT 04/M03 A3041 RMK A01 T00371030  RH  062%=      5-min Rain = 0
KAHS 091734Z 19000KT 04/M03 A304 RMK A01 T00381030  RH  061%=      5-min Rain = 0
KAHS 091735Z 27000KT 04/M03 A304 RMK A01 T00381031  RH  061%=      5-min Rain = 0
KAHS 091736Z 28002KT 04/M03 A304 RMK A01 T00401026  RH  062%=      5-min Rain = 0
KAHS 091737Z 30004KT 04/M03 A304 RMK A01 T00411026  RH  062%=      5-min Rain = 0
KAHS 091738Z 30004KT 04/M03 A304 RMK A01 T00401034  RH  059%=      5-min Rain = 0
KAHS 091739Z 31004KT 04/M03 A304 RMK A01 T00381034  RH  059%=      5-min Rain = 0
KAHS 091740Z 34002KT 04/M04 A304 RMK A01 T00381036  RH  058%=      5-min Rain = 0
KAHS 091741Z 03000KT 04/M04 A304 RMK A01 T00391036  RH  058%=      5-min Rain = 0
KAHS 091742Z 29001KT 04/M03 A304 RMK A01 T00411033  RH  058%=      5-min Rain = 0
KAHS 091743Z 30003KT 04/M03 A304 RMK A01 T00431030  RH  059%=      5-min Rain = 0
KAHS 091744Z 30003KT 04/M03 A304 RMK A01 T00421032  RH  058%=      5-min Rain = 0
KAHS 091745Z 33002KT 04/M03 A304 RMK A01 T00431031  RH  059%=      5-min Rain = 0
KAHS 091746Z 00003KT 05/M03 A304 RMK A01 T00451027  RH  060%=      5-min Rain = 0
KAHS 091747Z 36001KT 05/M03 A304 RMK A01 T00451032  RH  057%=      5-min Rain = 0
KAHS 091748Z 31003KT 04/M04 A304 RMK A01 T00441037  RH  056%=      5-min Rain = 0
KAHS 091749Z 33005KT 04/M03 A304 RMK A01 T00441034  RH  057%=      5-min Rain = 0
KAHS 091750Z 01002KT 04/M04 A304 RMK A01 T00421039  RH  055%=      5-min Rain = 0
KAHS 091751Z 34002KT 04/M04 A304 RMK A01 T00431039  RH  055%=      5-min Rain = 0
KAHS 091752Z 33004KT 04/M04 A304 RMK A01 T00441040  RH  054%=      5-min Rain = 0
KAHS 091753Z 33004KT 04/M04 A304 RMK A01 T00441044  RH  053%=      5-min Rain = 0
KAHS 091754Z 34004KT 05/M04 A304 RMK A01 T00451039  RH  055%=      5-min Rain = 0
KAHS 091755Z 33003KT 05/M04 A304 RMK A01 T00451043  RH  053%=      5-min Rain = 0
KAHS 091756Z 33001KT 05/M05 A304 RMK A01 T00451045  RH  052%=      5-min Rain = 0
KAHS 091757Z 28000KT 05/M05 A304 RMK A01 T00461046  RH  051%=      5-min Rain = 0
KAHS 091758Z 32003KT 05/M04 A304 RMK A01 T00481040  RH  053%=      5-min Rain = 0
KAHS 091759Z 34002KT 05/M04 A304 RMK A01 T00471039  RH  054%=      5-min Rain = 0
KAHS 091800Z 29002KT 05/M03 A304 RMK A01 T00481032  RH  056%=      5-min Rain = 0
KAHS 091801Z 30004KT 05/M04 A304 RMK A01 T00491035  RH  055%=      5-min Rain = 0
KAHS 091802Z 30002KT 05/M04 A304 RMK A01 T00471039  RH  054%=      5-min Rain = 0
KAHS 091803Z 05001KT 05/M04 A304 RMK A01 T00481035  RH  055%=      5-min Rain = 0
KAHS 091804Z 05000KT 05/M04 A304 RMK A01 T00491036  RH  054%=      5-min Rain = 0
KAHS 091805Z 29003KT 05/M03 A3039 RMK A01 T00491034  RH  055%=      5-min Rain = 0
KAHS 091806Z 34003KT 05/M03 A3039 RMK A01 T00521027  RH  057%=      5-min Rain = 0
KAHS 091807Z 34004KT 05/M03 A3039 RMK A01 T00511030  RH  056%=      5-min Rain = 0
KAHS 091808Z 31003KT 05/M03 A3039 RMK A01 T00481032  RH  056%=      5-min Rain = 0
KAHS 091809Z 32003KT 05/M03 A3039 RMK A01 T00491032  RH  056%=      5-min Rain = 0
KAHS 091810Z 33005KT 05/M03 A3039 RMK A01 T00481032  RH  056%=      5-min Rain = 0
KAHS 091811Z 33002KT 05/M03 A3039 RMK A01 T00471033  RH  056%=      5-min Rain = 0
KAHS 091812Z 32003KT 05/M03 A3039 RMK A01 T00491030  RH  057%=      5-min Rain = 0
KAHS 091813Z 33003KT 05/M03 A3039 RMK A01 T00501032  RH  055%=      5-min Rain = 0
KAHS 091814Z 35004KT 05/M03 A3039 RMK A01 T00511032  RH  055%=      5-min Rain = 0
KAHS 091815Z 01007KT 05/M04 A3039 RMK A01 T00531039  RH  052%=      5-min Rain = 0
KAHS 091816Z 01006KT 05/M05 A3039 RMK A01 T00531054  RH  046%=      5-min Rain = 0
KAHS 091817Z 00005KT 05/M05 A3039 RMK A01 T00541051  RH  047%=      5-min Rain = 0
KAHS 091818Z 01004KT 05/M06 A3039 RMK A01 T00541057  RH  044%=      5-min Rain = 0
KAHS 091819Z 01006KT 06/M06 A3039 RMK A01 T00551055  RH  045%=      5-min Rain = 0
KAHS 091820Z 35006KT 06/M05 A3039 RMK A01 T00561051  RH  046%=      5-min Rain = 0
KAHS 091821Z 35005KT 06/M05 A3039 RMK A01 T00571052  RH  045%=      5-min Rain = 0
KAHS 091822Z 34006KT 06/M05 A3039 RMK A01 T00581045  RH  047%=      5-min Rain = 0
KAHS 091823Z 35004KT 06/M04 A3039 RMK A01 T00591043  RH  048%=      5-min Rain = 0
KAHS 091824Z 35005KT 06/M05 A3039 RMK A01 T00591051  RH  045%=      5-min Rain = 0
KAHS 091825Z 35005KT 06/M06 A3038 RMK A01 T00581059  RH  043%=      5-min Rain = 0
KAHS 091826Z 01004KT 06/M05 A3038 RMK A01 T00591053  RH  044%=      5-min Rain = 0
KAHS 091827Z 34002KT 06/M05 A3038 RMK A01 T00611049  RH  045%=      5-min Rain = 0
KAHS 091828Z 36004KT 06/M05 A3038 RMK A01 T00611054  RH  043%=      5-min Rain = 0
KAHS 091829Z 33001KT 06/M06 A3038 RMK A01 T00611058  RH  042%=      5-min Rain = 0
KAHS 091830Z 35004KT 06/M05 A3038 RMK A01 T00621054  RH  043%=      5-min Rain = 0
KAHS 091831Z 34004KT 06/M05 A3038 RMK A01 T00631052  RH  044%=      5-min Rain = 0
KAHS 091832Z 36004KT 06/M06 A3038 RMK A01 T00621056  RH  042%=      5-min Rain = 0
KAHS 091833Z 01006KT 06/M06 A3038 RMK A01 T00621060  RH  041%=      5-min Rain = 0
KAHS 091834Z 00006KT 06/M06 A3038 RMK A01 T00611062  RH  041%=      5-min Rain = 0
KAHS 091835Z 00006KT 06/M06 A3038 RMK A01 T00601062  RH  041%=      5-min Rain = 0
KAHS 091836Z 01005KT 06/M06 A3038 RMK A01 T00611061  RH  041%=      5-min Rain = 0
KAHS 091837Z 35004KT 06/M06 A3038 RMK A01 T00611057  RH  042%=      5-min Rain = 0
KAHS 091838Z 34005KT 06/M06 A3038 RMK A01 T00621058  RH  042%=      5-min Rain = 0
KAHS 091839Z 33005KT 06/M06 A3037 RMK A01 T00611062  RH  041%=      5-min Rain = 0
KAHS 091840Z 32004KT 06/M06 A3037 RMK A01 T00611061  RH  041%=      5-min Rain = 0
KAHS 091841Z 33004KT 06/M06 A3037 RMK A01 T00611064  RH  041%=      5-min Rain = 0
KAHS 091842Z 35002KT 06/M07 A3037 RMK A01 T00591071  RH  039%=      5-min Rain = 0
KAHS 091843Z 01004KT 06/M07 A3037 RMK A01 T00601066  RH  040%=      5-min Rain = 0
KAHS 091844Z 00005KT 06/M06 A3037 RMK A01 T00621064  RH  040%=      5-min Rain = 0
KAHS 091845Z 02004KT 06/M07 A3037 RMK A01 T00611068  RH  039%=      5-min Rain = 0
KAHS 091846Z 01004KT 06/M06 A3037 RMK A01 T00631061  RH  041%=      5-min Rain = 0
KAHS 091847Z 35003KT 06/M07 A3037 RMK A01 T00641065  RH  039%=      5-min Rain = 0
KAHS 091848Z 01003KT 06/M08 A3037 RMK A01 T00631077  RH  036%=      5-min Rain = 0
KAHS 091849Z 02005KT 06/M07 A3037 RMK A01 T00641069  RH  038%=      5-min Rain = 0
KAHS 091850Z 00004KT 07/M07 A3037 RMK A01 T00651067  RH  038%=      5-min Rain = 0
KAHS 091851Z 01004KT 06/M07 A3037 RMK A01 T00641074  RH  037%=      5-min Rain = 0
KAHS 091852Z 02005KT 06/M07 A3037 RMK A01 T00631073  RH  037%=      5-min Rain = 0
KAHS 091853Z 01005KT 06/M07 A3037 RMK A01 T00641073  RH  037%=      5-min Rain = 0
KAHS 091854Z 02004KT 06/M07 A3037 RMK A01 T00641074  RH  036%=      5-min Rain = 0
KAHS 091855Z 03006KT 06/M08 A3036 RMK A01 T00631075  RH  036%=      5-min Rain = 0
KAHS 091856Z 04004KT 06/M07 A3036 RMK A01 T00631074  RH  037%=      5-min Rain = 0
KAHS 091857Z 34003KT 06/M07 A3036 RMK A01 T00641069  RH  038%=      5-min Rain = 0
KAHS 091858Z 34002KT 06/M07 A3036 RMK A01 T00641070  RH  038%=      5-min Rain = 0
KAHS 091859Z 35003KT 07/M08 A3036 RMK A01 T00651078  RH  035%=      5-min Rain = 0
KAHS 091900Z 35006KT 07/M07 A3036 RMK A01 T00651073  RH  037%=      5-min Rain = 0
KAHS 091901Z 35004KT 06/M08 A3036 RMK A01 T00641075  RH  036%=      5-min Rain = 0
KAHS 091902Z 34004KT 06/M07 A3036 RMK A01 T00641074  RH  037%=      5-min Rain = 0
KAHS 091903Z 34003KT 07/M07 A3036 RMK A01 T00651070  RH  037%=      5-min Rain = 0
KAHS 091904Z 34003KT 07/M07 A3036 RMK A01 T00651068  RH  038%=      5-min Rain = 0
KAHS 091905Z 35005KT 07/M06 A3036 RMK A01 T00671063  RH  039%=      5-min Rain = 0
KAHS 091906Z 00003KT 07/M07 A3036 RMK A01 T00681069  RH  037%=      5-min Rain = 0
KAHS 091907Z 01005KT 07/M07 A3036 RMK A01 T00681071  RH  036%=      5-min Rain = 0
KAHS 091908Z 03002KT 07/M08 A3036 RMK A01 T00671080  RH  034%=      5-min Rain = 0
KAHS 091909Z 04001KT 07/M08 A3036 RMK A01 T00661083  RH  034%=      5-min Rain = 0
KAHS 091910Z 32005KT 07/M07 A3036 RMK A01 T00681070  RH  037%=      5-min Rain = 0
KAHS 091911Z 35006KT 07/M07 A3036 RMK A01 T00661069  RH  037%=      5-min Rain = 0
KAHS 091912Z 01005KT 07/M06 A3036 RMK A01 T00661064  RH  039%=      5-min Rain = 0
KAHS 091913Z 34007KT 07/M06 A3036 RMK A01 T00671064  RH  039%=      5-min Rain = 0
KAHS 091914Z 33005KT 06/M07 A3036 RMK A01 T00641071  RH  037%=      5-min Rain = 0
KAHS 091915Z 32002KT 06/M07 A3036 RMK A01 T00641072  RH  037%=      5-min Rain = 0
KAHS 091916Z 35003KT 06/M07 A3036 RMK A01 T00641072  RH  037%=      5-min Rain = 0
KAHS 091917Z 00004KT 07/M06 A3036 RMK A01 T00661061  RH  040%=      5-min Rain = 0
KAHS 091918Z 01005KT 07/M06 A3036 RMK A01 T00681060  RH  040%=      5-min Rain = 0
KAHS 091919Z 04002KT 07/M07 A3036 RMK A01 T00671068  RH  037%=      5-min Rain = 0
KAHS 091920Z 02003KT 07/M06 A3036 RMK A01 T00671064  RH  039%=      5-min Rain = 0
KAHS 091921Z 00004KT 07/M06 A3036 RMK A01 T00671064  RH  039%=      5-min Rain = 0
KAHS 091922Z 00006KT 07/M06 A3036 RMK A01 T00681055  RH  041%=      5-min Rain = 0
KAHS 091923Z 35006KT 07/M06 A3036 RMK A01 T00691056  RH  041%=      5-min Rain = 0
KAHS 091924Z 01005KT 07/M06 A3036 RMK A01 T00681063  RH  039%=      5-min Rain = 0
KAHS 091925Z 01004KT 07/M07 A3036 RMK A01 T00661070  RH  037%=      5-min Rain = 0
KAHS 091926Z 03002KT 07/M07 A3036 RMK A01 T00661068  RH  038%=      5-min Rain = 0
KAHS 091927Z 03003KT 07/M07 A3035 RMK A01 T00671070  RH  037%=      5-min Rain = 0
KAHS 091928Z 02004KT 07/M07 A3035 RMK A01 T00681071  RH  037%=      5-min Rain = 0
KAHS 091929Z 34005KT 07/M07 A3035 RMK A01 T00691067  RH  037%=      5-min Rain = 0
KAHS 091930Z 33004KT 07/M07 A3035 RMK A01 T00671071  RH  037%=      5-min Rain = 0
KAHS 091931Z 36004KT 07/M07 A3035 RMK A01 T00681065  RH  038%=      5-min Rain = 0
KAHS 091932Z 02004KT 07/M08 A3035 RMK A01 T00681077  RH  035%=      5-min Rain = 0
KAHS 091933Z 02002KT 07/M08 A3035 RMK A01 T00681081  RH  034%=      5-min Rain = 0
KAHS 091934Z 33001KT 07/M08 A3035 RMK A01 T00691077  RH  034%=      5-min Rain = 0
KAHS 091935Z 26002KT 07/M08 A3035 RMK A01 T00701079  RH  034%=      5-min Rain = 0
KAHS 091936Z 32002KT 07/M07 A3035 RMK A01 T00711072  RH  036%=      5-min Rain = 0
KAHS 091937Z 05001KT 07/M08 A3035 RMK A01 T00711077  RH  034%=      5-min Rain = 0
KAHS 091938Z 01001KT 07/M08 A3035 RMK A01 T00711082  RH  033%=      5-min Rain = 0
KAHS 091939Z 32005KT 07/M07 A3035 RMK A01 T00721066  RH  037%=      5-min Rain = 0
KAHS 091940Z 31005KT 07/M06 A3035 RMK A01 T00731057  RH  039%=      5-min Rain = 0
KAHS 091941Z 33005KT 07/M06 A3035 RMK A01 T00721059  RH  039%=      5-min Rain = 0
KAHS 091942Z 36004KT 07/M05 A3035 RMK A01 T00731054  RH  040%=      5-min Rain = 0
KAHS 091943Z 35004KT 07/M07 A3035 RMK A01 T00721070  RH  036%=      5-min Rain = 0
KAHS 091944Z 34003KT 07/M07 A3035 RMK A01 T00721069  RH  036%=      5-min Rain = 0
KAHS 091945Z 32003KT 07/M08 A3035 RMK A01 T00701080  RH  033%=      5-min Rain = 0
KAHS 091946Z 00004KT 07/M08 A3035 RMK A01 T00691079  RH  034%=      5-min Rain = 0
KAHS 091947Z 01003KT 07/M07 A3035 RMK A01 T00701071  RH  036%=      5-min Rain = 0
KAHS 091948Z 02003KT 07/M08 A3035 RMK A01 T00701078  RH  034%=      5-min Rain = 0
KAHS 091949Z 00002KT 07/M08 A3035 RMK A01 T00701081  RH  033%=      5-min Rain = 0
KAHS 091950Z 34005KT 07/M07 A3035 RMK A01 T00711073  RH  035%=      5-min Rain = 0
KAHS 091951Z 35006KT 07/M08 A3035 RMK A01 T00691077  RH  035%=      5-min Rain = 0
KAHS 091952Z 00005KT 07/M07 A3035 RMK A01 T00691073  RH  036%=      5-min Rain = 0
KAHS 091953Z 01004KT 07/M06 A3035 RMK A01 T00711064  RH  038%=      5-min Rain = 0
KAHS 091954Z 00004KT 07/M07 A3035 RMK A01 T00711071  RH  036%=      5-min Rain = 0
KAHS 091955Z 01003KT 07/M07 A3035 RMK A01 T00711073  RH  035%=      5-min Rain = 0
KAHS 091956Z 02002KT 07/M08 A3035 RMK A01 T00711075  RH  035%=      5-min Rain = 0
KAHS 091957Z 36002KT 07/M07 A3035 RMK A01 T00711069  RH  036%=      5-min Rain = 0
KAHS 091958Z 32002KT 07/M06 A3035 RMK A01 T00731064  RH  037%=      5-min Rain = 0
KAHS 091959Z 34002KT 07/M07 A3035 RMK A01 T00731069  RH  036%=      5-min Rain = 0
KAHS 092000Z 31001KT 07/M07 A3035 RMK A01 T00741073  RH  034%=      5-min Rain = 0
KAHS 092001Z 30002KT 08/M07 A3035 RMK A01 T00761069  RH  035%=      5-min Rain = 0
KAHS 092002Z 35003KT 08/M07 A3035 RMK A01 T00771069  RH  035%=      5-min Rain = 0
KAHS 092003Z 36003KT 08/M07 A3035 RMK A01 T00761074  RH  034%=      5-min Rain = 0
KAHS 092004Z 35003KT 08/M07 A3035 RMK A01 T00751071  RH  035%=      5-min Rain = 0
KAHS 092005Z 34002KT 07/M08 A3035 RMK A01 T00741075  RH  034%=      5-min Rain = 0
KAHS 092006Z 32003KT 08/M07 A3035 RMK A01 T00751069  RH  035%=      5-min Rain = 0
KAHS 092007Z 35005KT 08/M07 A3035 RMK A01 T00751074  RH  034%=      5-min Rain = 0
KAHS 092008Z 35004KT 07/M07 A3035 RMK A01 T00741073  RH  034%=      5-min Rain = 0
KAHS 092009Z 35004KT 08/M07 A3035 RMK A01 T00751067  RH  036%=      5-min Rain = 0
KAHS 092010Z 34003KT 08/M06 A3035 RMK A01 T00761060  RH  037%=      5-min Rain = 0
KAHS 092011Z 35003KT 08/M08 A3035 RMK A01 T00751079  RH  033%=      5-min Rain = 0
KAHS 092012Z 02002KT 07/M08 A3035 RMK A01 T00731081  RH  033%=      5-min Rain = 0
KAHS 092013Z 36003KT 07/M07 A3035 RMK A01 T00741074  RH  034%=      5-min Rain = 0
KAHS 092014Z 32003KT 08/M07 A3035 RMK A01 T00751068  RH  036%=      5-min Rain = 0
KAHS 092015Z 01005KT 08/M07 A3035 RMK A01 T00751070  RH  035%=      5-min Rain = 0
KAHS 092016Z 01005KT 08/M07 A3035 RMK A01 T00761069  RH  035%=      5-min Rain = 0
KAHS 092017Z 01004KT 08/M07 A3034 RMK A01 T00771073  RH  034%=      5-min Rain = 0
KAHS 092018Z 35005KT 08/M06 A3034 RMK A01 T00781063  RH  036%=      5-min Rain = 0
KAHS 092019Z 34005KT 08/M06 A3034 RMK A01 T00771064  RH  036%=      5-min Rain = 0
KAHS 092020Z 36004KT 08/M06 A3034 RMK A01 T00761063  RH  037%=      5-min Rain = 0
KAHS 092021Z 36004KT 08/M07 A3034 RMK A01 T00751070  RH  035%=      5-min Rain = 0
KAHS 092022Z 01002KT 08/M07 A3034 RMK A01 T00761065  RH  036%=      5-min Rain = 0
KAHS 092023Z 34002KT 08/M07 A3034 RMK A01 T00771066  RH  035%=      5-min Rain = 0
KAHS 092024Z 30001KT 08/M07 A3034 RMK A01 T00761074  RH  034%=      5-min Rain = 0
KAHS 092025Z 02003KT 08/M07 A3034 RMK A01 T00771072  RH  034%=      5-min Rain = 0
KAHS 092026Z 01003KT 08/M07 A3034 RMK A01 T00761067  RH  035%=      5-min Rain = 0
KAHS 092027Z 34004KT 08/M06 A3034 RMK A01 T00761064  RH  036%=      5-min Rain = 0
KAHS 092028Z 33006KT 08/M06 A3034 RMK A01 T00751064  RH  037%=      5-min Rain = 0
KAHS 092029Z 00005KT 08/M06 A3034 RMK A01 T00751056  RH  039%=      5-min Rain = 0
KAHS 092030Z 02006KT 08/M06 A3034 RMK A01 T00771059  RH  038%=      5-min Rain = 0
KAHS 092031Z 03005KT 08/M06 A3034 RMK A01 T00771058  RH  038%=      5-min Rain = 0
KAHS 092032Z 04004KT 08/M06 A3034 RMK A01 T00781055  RH  039%=      5-min Rain = 0
KAHS 092033Z 34003KT 08/M05 A3034 RMK A01 T00791051  RH  039%=      5-min Rain = 0
KAHS 092034Z 34001KT 08/M06 A3034 RMK A01 T00791056  RH  038%=      5-min Rain = 0
KAHS 092035Z 00002KT 08/M06 A3034 RMK A01 T00801060  RH  036%=      5-min Rain = 0
KAHS 092036Z 33001KT 08/M07 A3034 RMK A01 T00791066  RH  035%=      5-min Rain = 0
KAHS 092037Z 24002KT 08/M07 A3034 RMK A01 T00771069  RH  035%=      5-min Rain = 0
KAHS 092038Z 01001KT 08/M06 A3034 RMK A01 T00771062  RH  037%=      5-min Rain = 0
KAHS 092039Z 00003KT 08/M06 A3034 RMK A01 T00791055  RH  038%=      5-min Rain = 0
KAHS 092040Z 00002KT 08/M06 A3034 RMK A01 T00781064  RH  036%=      5-min Rain = 0
KAHS 092041Z 24000KT 08/M07 A3034 RMK A01 T00781069  RH  035%=      5-min Rain = 0
KAHS 092042Z 30001KT 08/M07 A3034 RMK A01 T00781069  RH  034%=      5-min Rain = 0
KAHS 092043Z 26001KT 08/M07 A3034 RMK A01 T00791065  RH  035%=      5-min Rain = 0
KAHS 092044Z 04000KT 08/M06 A3034 RMK A01 T00801060  RH  037%=      5-min Rain = 0
KAHS 092045Z 03001KT 08/M06 A3034 RMK A01 T00811058  RH  037%=      5-min Rain = 0
KAHS 092046Z 01001KT 08/M06 A3034 RMK A01 T00811063  RH  035%=      5-min Rain = 0
KAHS 092047Z 05001KT 08/M06 A3034 RMK A01 T00811062  RH  036%=      5-min Rain = 0
KAHS 092048Z 32001KT 08/M05 A3034 RMK A01 T00821053  RH  038%=      5-min Rain = 0
KAHS 092049Z 00000KT 08/M06 A3034 RMK A01 T00841056  RH  037%=      5-min Rain = 0
KAHS 092050Z 02000KT 09/M06 A3034 RMK A01 T00851058  RH  036%=      5-min Rain = 0
KAHS 092051Z 03004KT 08/M06 A3034 RMK A01 T00841055  RH  037%=      5-min Rain = 0
KAHS 092052Z 04003KT 08/M05 A3034 RMK A01 T00821054  RH  038%=      5-min Rain = 0
KAHS 092053Z 03002KT 08/M05 A3034 RMK A01 T00811050  RH  039%=      5-min Rain = 0
KAHS 092054Z 00005KT 08/M05 A3034 RMK A01 T00811047  RH  040%=      5-min Rain = 0
KAHS 092055Z 00005KT 08/M05 A3034 RMK A01 T00811045  RH  041%=      5-min Rain = 0
KAHS 092056Z 02004KT 08/M04 A3034 RMK A01 T00811042  RH  041%=      5-min Rain = 0
KAHS 092057Z 02002KT 08/M04 A3034 RMK A01 T00821040  RH  042%=      5-min Rain = 0
KAHS 092058Z 01003KT 08/M05 A3034 RMK A01 T00821047  RH  040%=      5-min Rain = 0
KAHS 092059Z 35002KT 08/M05 A3034 RMK A01 T00821046  RH  040%=      5-min Rain = 0
KAHS 092100Z 00006KT 08/M05 A3034 RMK A01 T00811046  RH  040%=      5-min Rain = 0
KAHS 092101Z 01007KT 08/M04 A3034 RMK A01 T00801044  RH  041%=      5-min Rain = 0
KAHS 092102Z 35007KT 08/M04 A3034 RMK A01 T00811037  RH  043%=      5-min Rain = 0
KAHS 092103Z 35004KT 08/M04 A3034 RMK A01 T00821035  RH  044%=      5-min Rain = 0
KAHS 092104Z 03005KT 08/M04 A3034 RMK A01 T00821039  RH  042%=      5-min Rain = 0
KAHS 092105Z 04006KT 08/M04 A3034 RMK A01 T00811039  RH  042%=      5-min Rain = 0
KAHS 092106Z 03006KT 08/M04 A3034 RMK A01 T00801039  RH  043%=      5-min Rain = 0
KAHS 092107Z 03006KT 08/M04 A3034 RMK A01 T00801040  RH  042%=      5-min Rain = 0
KAHS 092108Z 03004KT 08/M05 A3034 RMK A01 T00791046  RH  041%=      5-min Rain = 0
KAHS 092109Z 03004KT 08/M05 A3034 RMK A01 T00791045  RH  041%=      5-min Rain = 0
KAHS 092110Z 01002KT 08/M05 A3034 RMK A01 T00781051  RH  039%=      5-min Rain = 0
KAHS 092111Z 02003KT 08/M05 A3034 RMK A01 T00791047  RH  041%=      5-min Rain = 0
KAHS 092112Z 02004KT 08/M05 A3034 RMK A01 T00801047  RH  040%=      5-min Rain = 0
KAHS 092113Z 04005KT 08/M05 A3034 RMK A01 T00791049  RH  040%=      5-min Rain = 0
KAHS 092114Z 05004KT 08/M05 A3034 RMK A01 T00791047  RH  041%=      5-min Rain = 0
KAHS 092115Z 04004KT 08/M05 A3034 RMK A01 T00791048  RH  040%=      5-min Rain = 0
KAHS 092116Z 02005KT 08/M05 A3034 RMK A01 T00791049  RH  040%=      5-min Rain = 0
KAHS 092117Z 02004KT 08/M04 A3034 RMK A01 T00801044  RH  041%=      5-min Rain = 0
KAHS 092118Z 02004KT 08/M05 A3034 RMK A01 T00801047  RH  040%=      5-min Rain = 0
KAHS 092119Z 01008KT 08/M04 A3034 RMK A01 T00801042  RH  042%=      5-min Rain = 0
KAHS 092120Z 01006KT 08/M04 A3034 RMK A01 T00811037  RH  043%=      5-min Rain = 0
KAHS 092121Z 02005KT 08/M04 A3034 RMK A01 T00821041  RH  042%=      5-min Rain = 0
KAHS 092122Z 01006KT 08/M04 A3034 RMK A01 T00821039  RH  042%=      5-min Rain = 0
KAHS 092123Z 00005KT 08/M04 A3034 RMK A01 T00821041  RH  042%=      5-min Rain = 0
KAHS 092124Z 36005KT 08/M04 A3034 RMK A01 T00821042  RH  041%=      5-min Rain = 0
KAHS 092125Z 36003KT 08/M05 A3034 RMK A01 T00811047  RH  040%=      5-min Rain = 0
KAHS 092126Z 36003KT 08/M05 A3034 RMK A01 T00801052  RH  039%=      5-min Rain = 0
KAHS 092127Z 35002KT 08/M05 A3034 RMK A01 T00811050  RH  039%=      5-min Rain = 0
KAHS 092128Z 35005KT 08/M04 A3034 RMK A01 T00821039  RH  042%=      5-min Rain = 0
KAHS 092129Z 34007KT 08/M05 A3034 RMK A01 T00821045  RH  040%=      5-min Rain = 0
KAHS 092130Z 00006KT 08/M04 A3034 RMK A01 T00811044  RH  041%=      5-min Rain = 0
KAHS 092131Z 02006KT 08/M04 A3034 RMK A01 T00811044  RH  041%=      5-min Rain = 0
KAHS 092132Z 02005KT 08/M04 A3034 RMK A01 T00811040  RH  042%=      5-min Rain = 0
KAHS 092133Z 01006KT 08/M04 A3034 RMK A01 T00831039  RH  042%=      5-min Rain = 0
KAHS 092134Z 01005KT 08/M04 A3034 RMK A01 T00831041  RH  041%=      5-min Rain = 0
KAHS 092135Z 36005KT 08/M04 A3034 RMK A01 T00841039  RH  042%=      5-min Rain = 0
KAHS 092136Z 35004KT 08/M05 A3034 RMK A01 T00831048  RH  039%=      5-min Rain = 0
KAHS 092137Z 35005KT 08/M05 A3034 RMK A01 T00821049  RH  039%=      5-min Rain = 0
KAHS 092138Z 34004KT 08/M05 A3034 RMK A01 T00821046  RH  040%=      5-min Rain = 0
KAHS 092139Z 01006KT 08/M05 A3034 RMK A01 T00821045  RH  040%=      5-min Rain = 0
KAHS 092140Z 02005KT 08/M05 A3034 RMK A01 T00811047  RH  040%=      5-min Rain = 0
KAHS 092141Z 02006KT 08/M05 A3034 RMK A01 T00811048  RH  040%=      5-min Rain = 0
KAHS 092142Z 02005KT 08/M05 A3034 RMK A01 T00811050  RH  039%=      5-min Rain = 0
KAHS 092143Z 01005KT 08/M05 A3034 RMK A01 T00801054  RH  038%=      5-min Rain = 0
KAHS 092144Z 01006KT 08/M05 A3034 RMK A01 T00791049  RH  040%=      5-min Rain = 0
KAHS 092145Z 00006KT 08/M05 A3034 RMK A01 T00801046  RH  041%=      5-min Rain = 0
KAHS 092146Z 36008KT 08/M05 A3034 RMK A01 T00801046  RH  041%=      5-min Rain = 0
KAHS 092147Z 35006KT 08/M05 A3034 RMK A01 T00801048  RH  040%=      5-min Rain = 0
KAHS 092148Z 36004KT 08/M05 A3034 RMK A01 T00811045  RH  041%=      5-min Rain = 0
KAHS 092149Z 01005KT 08/M04 A3034 RMK A01 T00821041  RH  041%=      5-min Rain = 0
KAHS 092150Z 35006KT 08/M04 A3034 RMK A01 T00831039  RH  042%=      5-min Rain = 0
KAHS 092151Z 35006KT 08/M04 A3034 RMK A01 T00831043  RH  041%=      5-min Rain = 0
KAHS 092152Z 35007KT 08/M05 A3034 RMK A01 T00811047  RH  040%=      5-min Rain = 0
KAHS 092153Z 36006KT 08/M05 A3034 RMK A01 T00801050  RH  039%=      5-min Rain = 0
KAHS 092154Z 01006KT 08/M05 A3034 RMK A01 T00801046  RH  040%=      5-min Rain = 0
KAHS 092155Z 01006KT 08/M05 A3034 RMK A01 T00801047  RH  040%=      5-min Rain = 0
KAHS 092156Z 00007KT 08/M04 A3034 RMK A01 T00811044  RH  041%=      5-min Rain = 0
KAHS 092157Z 01008KT 08/M04 A3034 RMK A01 T00811041  RH  042%=      5-min Rain = 0
KAHS 092158Z 00006KT 08/M05 A3034 RMK A01 T00801047  RH  040%=      5-min Rain = 0
KAHS 092159Z 02007KT 08/M05 A3034 RMK A01 T00801047  RH  040%=      5-min Rain = 0
KAHS 092200Z 01007KT 08/M05 A3034 RMK A01 T00791050  RH  040%=      5-min Rain = 0
KAHS 092201Z 01007KT 08/M04 A3034 RMK A01 T00791044  RH  041%=      5-min Rain = 0
KAHS 092202Z 01008KT 08/M04 A3034 RMK A01 T00801043  RH  041%=      5-min Rain = 0
KAHS 092203Z 01008KT 08/M05 A3034 RMK A01 T00791046  RH  041%=      5-min Rain = 0
KAHS 092204Z 01006KT 08/M05 A3034 RMK A01 T00781048  RH  040%=      5-min Rain = 0
KAHS 092205Z 00007KT 08/M05 A3034 RMK A01 T00781047  RH  041%=      5-min Rain = 0
KAHS 092206Z 02008KT 08/M05 A3034 RMK A01 T00781046  RH  041%=      5-min Rain = 0
KAHS 092207Z 02008KT 08/M05 A3034 RMK A01 T00771048  RH  041%=      5-min Rain = 0
KAHS 092208Z 02007KT 08/M05 A3034 RMK A01 T00771045  RH  042%=      5-min Rain = 0
KAHS 092209Z 02006KT 08/M04 A3034 RMK A01 T00781040  RH  043%=      5-min Rain = 0
KAHS 092210Z 02006KT 08/M04 A3034 RMK A01 T00781043  RH  042%=      5-min Rain = 0
KAHS 092211Z 02004KT 08/M04 A3034 RMK A01 T00781044  RH  042%=      5-min Rain = 0
KAHS 092212Z 02005KT 08/M05 A3034 RMK A01 T00781048  RH  041%=      5-min Rain = 0
KAHS 092213Z 03005KT 08/M05 A3034 RMK A01 T00781046  RH  041%=      5-min Rain = 0
KAHS 092214Z 03005KT 08/M04 A3034 RMK A01 T00791041  RH  043%=      5-min Rain = 0
KAHS 092215Z 02007KT 08/M04 A3034 RMK A01 T00791040  RH  043%=      5-min Rain = 0
KAHS 092216Z 01006KT 08/M03 A3034 RMK A01 T00791034  RH  044%=      5-min Rain = 0
KAHS 092217Z 36006KT 08/M04 A3034 RMK A01 T00801038  RH  043%=      5-min Rain = 0
KAHS 092218Z 01005KT 08/M04 A3034 RMK A01 T00791044  RH  041%=      5-min Rain = 0
KAHS 092219Z 00006KT 08/M04 A3034 RMK A01 T00791037  RH  044%=      5-min Rain = 0
KAHS 092220Z 01007KT 08/M04 A3034 RMK A01 T00791039  RH  043%=      5-min Rain = 0
KAHS 092221Z 01007KT 08/M04 A3034 RMK A01 T00781042  RH  042%=      5-min Rain = 0
KAHS 092222Z 35007KT 08/M04 A3034 RMK A01 T00771043  RH  042%=      5-min Rain = 0
KAHS 092223Z 35007KT 08/M04 A3034 RMK A01 T00781042  RH  043%=      5-min Rain = 0
KAHS 092224Z 00005KT 08/M04 A3034 RMK A01 T00771044  RH  042%=      5-min Rain = 0
KAHS 092225Z 00005KT 08/M04 A3034 RMK A01 T00781044  RH  042%=      5-min Rain = 0
KAHS 092226Z 00006KT 08/M04 A3034 RMK A01 T00771044  RH  042%=      5-min Rain = 0
KAHS 092227Z 36005KT 08/M05 A3034 RMK A01 T00771045  RH  042%=      5-min Rain = 0
KAHS 092228Z 35004KT 08/M04 A3034 RMK A01 T00771040  RH  043%=      5-min Rain = 0
KAHS 092229Z 33006KT 08/M04 A3034 RMK A01 T00781040  RH  043%=      5-min Rain = 0
KAHS 092230Z 34005KT 08/M04 A3034 RMK A01 T00781042  RH  042%=      5-min Rain = 0
KAHS 092231Z 36006KT 08/M04 A3034 RMK A01 T00771042  RH  043%=      5-min Rain = 0
KAHS 092232Z 36006KT 08/M04 A3034 RMK A01 T00771041  RH  043%=      5-min Rain = 0
KAHS 092233Z 36005KT 08/M04 A3034 RMK A01 T00771039  RH  043%=      5-min Rain = 0
KAHS 092234Z 00007KT 08/M04 A3034 RMK A01 T00781037  RH  044%=      5-min Rain = 0
KAHS 092235Z 00006KT 08/M04 A3035 RMK A01 T00771044  RH  042%=      5-min Rain = 0
KAHS 092236Z 35006KT 08/M05 A3035 RMK A01 T00761045  RH  042%=      5-min Rain = 0
KAHS 092237Z 35005KT 08/M04 A3035 RMK A01 T00761043  RH  043%=      5-min Rain = 0
KAHS 092238Z 00006KT 08/M04 A3035 RMK A01 T00761042  RH  043%=      5-min Rain = 0
KAHS 092239Z 00005KT 08/M04 A3035 RMK A01 T00761042  RH  043%=      5-min Rain = 0
KAHS 092240Z 01005KT 08/M04 A3035 RMK A01 T00761038  RH  044%=      5-min Rain = 0
KAHS 092241Z 36006KT 08/M04 A3035 RMK A01 T00751044  RH  042%=      5-min Rain = 0
KAHS 092242Z 00005KT 07/M05 A3035 RMK A01 T00741048  RH  042%=      5-min Rain = 0
KAHS 092243Z 00004KT 08/M04 A3035 RMK A01 T00751042  RH  043%=      5-min Rain = 0
KAHS 092244Z 01006KT 08/M04 A3035 RMK A01 T00751039  RH  044%=      5-min Rain = 0
KAHS 092245Z 01006KT 07/M04 A3035 RMK A01 T00741040  RH  044%=      5-min Rain = 0
KAHS 092246Z 00005KT 07/M04 A3035 RMK A01 T00741044  RH  043%=      5-min Rain = 0
KAHS 092247Z 01005KT 07/M04 A3035 RMK A01 T00741039  RH  044%=      5-min Rain = 0
KAHS 092248Z 01005KT 07/M04 A3035 RMK A01 T00731043  RH  044%=      5-min Rain = 0
KAHS 092249Z 00005KT 07/M04 A3035 RMK A01 T00731041  RH  044%=      5-min Rain = 0
KAHS 092250Z 00004KT 07/M04 A3035 RMK A01 T00731042  RH  044%=      5-min Rain = 0
KAHS 092251Z 01006KT 07/M04 A3035 RMK A01 T00731041  RH  044%=      5-min Rain = 0
KAHS 092252Z 01007KT 07/M04 A3035 RMK A01 T00721043  RH  044%=      5-min Rain = 0
KAHS 092253Z 02006KT 07/M04 A3035 RMK A01 T00721044  RH  044%=      5-min Rain = 0
KAHS 092254Z 00006KT 07/M04 A3035 RMK A01 T00711042  RH  045%=      5-min Rain = 0
KAHS 092255Z 36005KT 07/M04 A3035 RMK A01 T00711038  RH  046%=      5-min Rain = 0
KAHS 092256Z 36007KT 07/M04 A3035 RMK A01 T00711038  RH  046%=      5-min Rain = 0
KAHS 092257Z 00006KT 07/M04 A3035 RMK A01 T00711036  RH  046%=      5-min Rain = 0
KAHS 092258Z 01006KT 07/M04 A3035 RMK A01 T00711036  RH  047%=      5-min Rain = 0
KAHS 092259Z 35006KT 07/M04 A3035 RMK A01 T00701038  RH  046%=      5-min Rain = 0
KAHS 092300Z 36008KT 07/M04 A3035 RMK A01 T00691040  RH  046%=      5-min Rain = 0
KAHS 092301Z 36008KT 07/M04 A3035 RMK A01 T00691042  RH  045%=      5-min Rain = 0
KAHS 092302Z 00008KT 07/M04 A3035 RMK A01 T00681040  RH  046%=      5-min Rain = 0
KAHS 092303Z 00008KT 07/M04 A3035 RMK A01 T00671039  RH  047%=      5-min Rain = 0
KAHS 092304Z 36007KT 07/M04 A3035 RMK A01 T00671037  RH  047%=      5-min Rain = 0
KAHS 092305Z 00006KT 07/M04 A3035 RMK A01 T00671035  RH  048%=      5-min Rain = 0
KAHS 092306Z 00007KT 07/M04 A3035 RMK A01 T00661037  RH  048%=      5-min Rain = 0
KAHS 092307Z 00007KT 07/M04 A3035 RMK A01 T00661039  RH  047%=      5-min Rain = 0
KAHS 092308Z 00008KT 07/M04 A3035 RMK A01 T00651038  RH  048%=      5-min Rain = 0
KAHS 092309Z 00006KT 07/M04 A3035 RMK A01 T00651038  RH  048%=      5-min Rain = 0
KAHS 092310Z 01005KT 07/M04 A3035 RMK A01 T00651037  RH  048%=      5-min Rain = 0
KAHS 092311Z 00005KT 06/M03 A3035 RMK A01 T00641034  RH  049%=      5-min Rain = 0
KAHS 092312Z 00006KT 06/M03 A3035 RMK A01 T00641034  RH  049%=      5-min Rain = 0
KAHS 092313Z 00006KT 06/M03 A3035 RMK A01 T00641033  RH  050%=      5-min Rain = 0
KAHS 092314Z 36007KT 06/M03 A3035 RMK A01 T00631033  RH  050%=      5-min Rain = 0
KAHS 092315Z 36006KT 06/M03 A3035 RMK A01 T00621034  RH  050%=      5-min Rain = 0
KAHS 092316Z 36005KT 06/M03 A3035 RMK A01 T00621032  RH  051%=      5-min Rain = 0
KAHS 092317Z 01005KT 06/M03 A3035 RMK A01 T00611031  RH  052%=      5-min Rain = 0
KAHS 092318Z 00005KT 06/M03 A3035 RMK A01 T00601031  RH  052%=      5-min Rain = 0
KAHS 092319Z 00005KT 06/M03 A3035 RMK A01 T00591030  RH  053%=      5-min Rain = 0
KAHS 092320Z 01006KT 06/M03 A3035 RMK A01 T00591032  RH  052%=      5-min Rain = 0
KAHS 092321Z 01005KT 06/M03 A3035 RMK A01 T00581033  RH  052%=      5-min Rain = 0
KAHS 092322Z 01006KT 06/M03 A3035 RMK A01 T00581031  RH  053%=      5-min Rain = 0
KAHS 092323Z 01005KT 06/M03 A3035 RMK A01 T00571033  RH  053%=      5-min Rain = 0
KAHS 092324Z 01005KT 06/M03 A3035 RMK A01 T00561031  RH  054%=      5-min Rain = 0
KAHS 092325Z 00006KT 06/M03 A3035 RMK A01 T00551032  RH  053%=      5-min Rain = 0
KAHS 092326Z 00006KT 06/M03 A3035 RMK A01 T00551033  RH  053%=      5-min Rain = 0
KAHS 092327Z 01006KT 05/M03 A3035 RMK A01 T00541032  RH  054%=      5-min Rain = 0
KAHS 092328Z 01005KT 05/M03 A3035 RMK A01 T00531032  RH  054%=      5-min Rain = 0
KAHS 092329Z 01005KT 05/M03 A3035 RMK A01 T00521030  RH  055%=      5-min Rain = 0
KAHS 092330Z 01004KT 05/M03 A3035 RMK A01 T00511030  RH  056%=      5-min Rain = 0
KAHS 092331Z 01005KT 05/M03 A3035 RMK A01 T00501030  RH  056%=      5-min Rain = 0
KAHS 092332Z 01005KT 05/M03 A3035 RMK A01 T00491032  RH  056%=      5-min Rain = 0
KAHS 092333Z 01004KT 05/M03 A3035 RMK A01 T00491032  RH  056%=      5-min Rain = 0
KAHS 092334Z 01004KT 05/M03 A3035 RMK A01 T00481031  RH  057%=      5-min Rain = 0
KAHS 092335Z 01004KT 05/M03 A3035 RMK A01 T00471031  RH  057%=      5-min Rain = 0
KAHS 092336Z 01004KT 05/M03 A3035 RMK A01 T00461031  RH  058%=      5-min Rain = 0
KAHS 092337Z 01004KT 05/M03 A3035 RMK A01 T00451031  RH  058%=      5-min Rain = 0
KAHS 092338Z 01004KT 04/M03 A3035 RMK A01 T00441032  RH  058%=      5-min Rain = 0
KAHS 092339Z 01004KT 04/M03 A3035 RMK A01 T00441031  RH  058%=      5-min Rain = 0
KAHS 092340Z 01005KT 04/M03 A3035 RMK A01 T00431031  RH  058%=      5-min Rain = 0
KAHS 092341Z 00004KT 04/M03 A3035 RMK A01 T00431031  RH  059%=      5-min Rain = 0
KAHS 092342Z 00005KT 04/M03 A3035 RMK A01 T00421031  RH  059%=      5-min Rain = 0
KAHS 092343Z 01004KT 04/M03 A3035 RMK A01 T00411031  RH  060%=      5-min Rain = 0
KAHS 092344Z 00005KT 04/M03 A3035 RMK A01 T00411031  RH  060%=      5-min Rain = 0
KAHS 092345Z 00005KT 04/M03 A3035 RMK A01 T00401031  RH  060%=      5-min Rain = 0
KAHS 092346Z 00005KT 04/M03 A3035 RMK A01 T00391031  RH  060%=      5-min Rain = 0
KAHS 092347Z 00005KT 04/M03 A3035 RMK A01 T00391030  RH  061%=      5-min Rain = 0
KAHS 092348Z 00005KT 04/M03 A3035 RMK A01 T00381030  RH  061%=      5-min Rain = 0
KAHS 092349Z 00006KT 04/M03 A3035 RMK A01 T00371030  RH  061%=      5-min Rain = 0
KAHS 092350Z 00005KT 04/M03 A3035 RMK A01 T00371030  RH  062%=      5-min Rain = 0
KAHS 092351Z 00005KT 04/M03 A3035 RMK A01 T00361030  RH  062%=      5-min Rain = 0
KAHS 092352Z 00005KT 04/M03 A3035 RMK A01 T00351030  RH  062%=      5-min Rain = 0
KAHS 092353Z 00005KT 04/M03 A3035 RMK A01 T00351030  RH  063%=      5-min Rain = 0
KAHS 092354Z 00005KT 04/M03 A3035 RMK A01 T00351029  RH  063%=      5-min Rain = 0
KAHS 092355Z 00005KT 04/M03 A3035 RMK A01 T00351029  RH  063%=      5-min Rain = 0
KAHS 092356Z 00005KT 03/M03 A3035 RMK A01 T00341030  RH  063%=      5-min Rain = 0
KAHS 092357Z 00005KT 03/M03 A3035 RMK A01 T00331029  RH  063%=      5-min Rain = 0
KAHS 092358Z 00005KT 03/M03 A3035 RMK A01 T00331029  RH  064%=      5-min Rain = 0
KAHS 092359Z 00005KT 03/M03 A3035 RMK A01 T00331029  RH  064%=      5-min Rain = 0
KAHS 100000Z 00005KT 03/M03 A3035 RMK A01 T00321029  RH  064%=      5-min Rain = 0
KAHS 100001Z 00005KT 03/M03 A3035 RMK A01 T00321028  RH  065%=      5-min Rain = 0
KAHS 100002Z 00005KT 03/M03 A3035 RMK A01 T00321028  RH  065%=      5-min Rain = 0
KAHS 100003Z 00005KT 03/M03 A3035 RMK A01 T00311028  RH  065%=      5-min Rain = 0
KAHS 100004Z 00005KT 03/M03 A3036 RMK A01 T00311028  RH  065%=      5-min Rain = 0
KAHS 100005Z 00005KT 03/M03 A3036 RMK A01 T00311027  RH  066%=      5-min Rain = 0
KAHS 100006Z 36005KT 03/M03 A3036 RMK A01 T00301027  RH  066%=      5-min Rain = 0
KAHS 100007Z 36005KT 03/M03 A3036 RMK A01 T00301027  RH  066%=      5-min Rain = 0
KAHS 100008Z 36005KT 03/M03 A3036 RMK A01 T00291027  RH  066%=      5-min Rain = 0
KAHS 100009Z 36005KT 03/M03 A3036 RMK A01 T00291027  RH  067%=      5-min Rain = 0
KAHS 100010Z 36005KT 03/M03 A3036 RMK A01 T00291027  RH  067%=      5-min Rain = 0
KAHS 100011Z 36005KT 03/M03 A3036 RMK A01 T00281027  RH  067%=      5-min Rain = 0
KAHS 100012Z 36005KT 03/M03 A3036 RMK A01 T00281027  RH  067%=      5-min Rain = 0
KAHS 100013Z 36005KT 03/M03 A3036 RMK A01 T00271026  RH  068%=      5-min Rain = 0
KAHS 100014Z 36005KT 03/M03 A3036 RMK A01 T00271026  RH  068%=      5-min Rain = 0
KAHS 100015Z 36005KT 03/M03 A3036 RMK A01 T00271026  RH  068%=      5-min Rain = 0
KAHS 100016Z 36005KT 03/M03 A3036 RMK A01 T00271027  RH  068%=      5-min Rain = 0
KAHS 100017Z 36005KT 03/M03 A3036 RMK A01 T00261027  RH  068%=      5-min Rain = 0
KAHS 100018Z 36005KT 03/M03 A3036 RMK A01 T00261027  RH  068%=      5-min Rain = 0
KAHS 100019Z 35005KT 03/M03 A3036 RMK A01 T00261027  RH  068%=      5-min Rain = 0
KAHS 100020Z 35005KT 03/M03 A3036 RMK A01 T00261027  RH  068%=      5-min Rain = 0
KAHS 100021Z 35005KT 03/M03 A3036 RMK A01 T00251027  RH  068%=      5-min Rain = 0
KAHS 100022Z 35005KT 03/M03 A3036 RMK A01 T00251027  RH  069%=      5-min Rain = 0
KAHS 100023Z 35005KT 02/M03 A3036 RMK A01 T00241027  RH  069%=      5-min Rain = 0
KAHS 100024Z 35005KT 02/M03 A3036 RMK A01 T00231027  RH  069%=      5-min Rain = 0
KAHS 100025Z 35005KT 02/M03 A3036 RMK A01 T00231027  RH  070%=      5-min Rain = 0
KAHS 100026Z 34005KT 02/M03 A3036 RMK A01 T00221027  RH  070%=      5-min Rain = 0
KAHS 100027Z 34005KT 02/M03 A3036 RMK A01 T00221027  RH  070%=      5-min Rain = 0
KAHS 100028Z 34005KT 02/M03 A3036 RMK A01 T00211028  RH  070%=      5-min Rain = 0
KAHS 100029Z 34005KT 02/M03 A3036 RMK A01 T00211028  RH  070%=      5-min Rain = 0
KAHS 100030Z 34005KT 02/M03 A3036 RMK A01 T00211028  RH  070%=      5-min Rain = 0
KAHS 100031Z 34005KT 02/M03 A3036 RMK A01 T00201028  RH  071%=      5-min Rain = 0
KAHS 100032Z 34005KT 02/M03 A3036 RMK A01 T00201027  RH  071%=      5-min Rain = 0
KAHS 100033Z 34005KT 02/M03 A3036 RMK A01 T00201028  RH  071%=      5-min Rain = 0
KAHS 100034Z 34005KT 02/M03 A3036 RMK A01 T00191028  RH  071%=      5-min Rain = 0
KAHS 100035Z 34005KT 02/M03 A3036 RMK A01 T00191027  RH  071%=      5-min Rain = 0
KAHS 100036Z 34005KT 02/M03 A3036 RMK A01 T00191027  RH  071%=      5-min Rain = 0
KAHS 100037Z 34005KT 02/M03 A3036 RMK A01 T00191028  RH  071%=      5-min Rain = 0
KAHS 100038Z 34005KT 02/M03 A3036 RMK A01 T00191028  RH  071%=      5-min Rain = 0
KAHS 100039Z 34005KT 02/M03 A3036 RMK A01 T00191028  RH  071%=      5-min Rain = 0
KAHS 100040Z 34005KT 02/M03 A3036 RMK A01 T00191028  RH  071%=      5-min Rain = 0
KAHS 100041Z 33005KT 02/M03 A3036 RMK A01 T00181028  RH  071%=      5-min Rain = 0
KAHS 100042Z 33005KT 02/M03 A3036 RMK A01 T00181028  RH  072%=      5-min Rain = 0
KAHS 100043Z 33005KT 02/M03 A3036 RMK A01 T00171028  RH  072%=      5-min Rain = 0
KAHS 100044Z 33005KT 02/M03 A3036 RMK A01 T00171029  RH  071%=      5-min Rain = 0
KAHS 100045Z 33005KT 02/M03 A3036 RMK A01 T00181029  RH  071%=      5-min Rain = 0
KAHS 100046Z 33005KT 02/M03 A3036 RMK A01 T00171029  RH  071%=      5-min Rain = 0
KAHS 100047Z 33005KT 02/M03 A3036 RMK A01 T00171029  RH  071%=      5-min Rain = 0
KAHS 100048Z 33005KT 02/M03 A3036 RMK A01 T00171029  RH  071%=      5-min Rain = 0
KAHS 100049Z 33005KT 02/M03 A3036 RMK A01 T00171029  RH  071%=      5-min Rain = 0
KAHS 100050Z 33005KT 02/M03 A3036 RMK A01 T00171029  RH  071%=      5-min Rain = 0
KAHS 100051Z 33005KT 02/M03 A3036 RMK A01 T00171029  RH  071%=      5-min Rain = 0
KAHS 100052Z 33005KT 02/M03 A3036 RMK A01 T00171029  RH  071%=      5-min Rain = 0
KAHS 100053Z 33005KT 02/M03 A3036 RMK A01 T00171029  RH  071%=      5-min Rain = 0
KAHS 100054Z 32004KT 02/M03 A3036 RMK A01 T00171029  RH  071%=      5-min Rain = 0
KAHS 100055Z 33004KT 02/M03 A3036 RMK A01 T00171029  RH  071%=      5-min Rain = 0
KAHS 100056Z 33004KT 02/M03 A3036 RMK A01 T00171029  RH  071%=      5-min Rain = 0
KAHS 100057Z 33004KT 02/M03 A3036 RMK A01 T00171029  RH  072%=      5-min Rain = 0
KAHS 100058Z 33004KT 02/M03 A3036 RMK A01 T00171028  RH  072%=      5-min Rain = 0
KAHS 100059Z 33004KT 02/M03 A3036 RMK A01 T00171028  RH  072%=      5-min Rain = 0
KAHS 100100Z 33004KT 02/M03 A3036 RMK A01 T00171028  RH  072%=      5-min Rain = 0
KAHS 100101Z 32004KT 02/M03 A3036 RMK A01 T00171028  RH  072%=      5-min Rain = 0
KAHS 100102Z 32003KT 02/M03 A3036 RMK A01 T00171028  RH  072%=      5-min Rain = 0
KAHS 100103Z 32003KT 02/M03 A3036 RMK A01 T00161029  RH  072%=      5-min Rain = 0
KAHS 100104Z 31003KT 02/M03 A3036 RMK A01 T00151029  RH  073%=      5-min Rain = 0
KAHS 100105Z 31003KT 01/M03 A3036 RMK A01 T00141029  RH  073%=      5-min Rain = 0
KAHS 100106Z 31002KT 01/M03 A3036 RMK A01 T00131029  RH  074%=      5-min Rain = 0
KAHS 100107Z 31003KT 01/M03 A3036 RMK A01 T00131028  RH  074%=      5-min Rain = 0
KAHS 100108Z 31003KT 01/M03 A3036 RMK A01 T00121028  RH  074%=      5-min Rain = 0
KAHS 100109Z 31003KT 01/M03 A3036 RMK A01 T00121029  RH  074%=      5-min Rain = 0
KAHS 100110Z 31003KT 01/M03 A3036 RMK A01 T00111029  RH  075%=      5-min Rain = 0
KAHS 100111Z 32003KT 01/M03 A3036 RMK A01 T00111029  RH  075%=      5-min Rain = 0
KAHS 100112Z 32003KT 01/M03 A3036 RMK A01 T00111029  RH  075%=      5-min Rain = 0
KAHS 100113Z 32003KT 01/M03 A3036 RMK A01 T00111029  RH  075%=      5-min Rain = 0
KAHS 100114Z 32002KT 01/M03 A3036 RMK A01 T00111029  RH  075%=      5-min Rain = 0
KAHS 100115Z 32002KT 01/M03 A3036 RMK A01 T00111029  RH  075%=      5-min Rain = 0
KAHS 100116Z 32002KT 01/M03 A3036 RMK A01 T00111029  RH  075%=      5-min Rain = 0
KAHS 100117Z 32002KT 01/M03 A3036 RMK A01 T00111029  RH  075%=      5-min Rain = 0
KAHS 100118Z 32001KT 01/M03 A3036 RMK A01 T00111029  RH  074%=      5-min Rain = 0
KAHS 100119Z 32001KT 01/M03 A3036 RMK A01 T00111029  RH  074%=      5-min Rain = 0
KAHS 100120Z 32001KT 01/M03 A3036 RMK A01 T00111030  RH  074%=      5-min Rain = 0
KAHS 100121Z 32001KT 01/M03 A3036 RMK A01 T00111030  RH  074%=      5-min Rain = 0
KAHS 100122Z 31001KT 01/M03 A3036 RMK A01 T00111029  RH  074%=      5-min Rain = 0
KAHS 100123Z 31001KT 01/M03 A3036 RMK A01 T00101029  RH  075%=      5-min Rain = 0
KAHS 100124Z 31001KT 01/M03 A3036 RMK A01 T00081029  RH  076%=      5-min Rain = 0
KAHS 100125Z 30002KT 01/M03 A3036 RMK A01 T00071028  RH  077%=      5-min Rain = 0
KAHS 100126Z 29002KT 01/M03 A3036 RMK A01 T00061027  RH  078%=      5-min Rain = 0
KAHS 100127Z 30002KT 01/M03 A3036 RMK A01 T00061027  RH  079%=      5-min Rain = 0
KAHS 100128Z 30003KT 01/M03 A3036 RMK A01 T00061027  RH  078%=      5-min Rain = 0
KAHS 100129Z 29003KT 01/M03 A3036 RMK A01 T00071028  RH  078%=      5-min Rain = 0
KAHS 100130Z 29003KT 01/M03 A3036 RMK A01 T00071029  RH  077%=      5-min Rain = 0
KAHS 100131Z 28003KT 01/M03 A3036 RMK A01 T00071029  RH  077%=      5-min Rain = 0
KAHS 100132Z 29003KT 01/M03 A3036 RMK A01 T00071029  RH  077%=      5-min Rain = 0
KAHS 100133Z 28002KT 01/M03 A3036 RMK A01 T00061030  RH  077%=      5-min Rain = 0
KAHS 100134Z 28002KT 01/M03 A3036 RMK A01 T00061030  RH  077%=      5-min Rain = 0
KAHS 100135Z 28002KT 01/M03 A3036 RMK A01 T00051030  RH  077%=      5-min Rain = 0
KAHS 100136Z 28002KT 01/M03 A3036 RMK A01 T00051030  RH  077%=      5-min Rain = 0
KAHS 100137Z 29003KT 00/M03 A3036 RMK A01 T00041030  RH  077%=      5-min Rain = 0
KAHS 100138Z 29003KT 00/M03 A3036 RMK A01 T00041031  RH  078%=      5-min Rain = 0
KAHS 100139Z 30003KT 00/M03 A3037 RMK A01 T00041031  RH  078%=      5-min Rain = 0
KAHS 100140Z 30003KT 00/M03 A3037 RMK A01 T00031031  RH  078%=      5-min Rain = 0
KAHS 100141Z 30003KT 00/M03 A3037 RMK A01 T00031031  RH  078%=      5-min Rain = 0
KAHS 100142Z 30002KT 00/M03 A3037 RMK A01 T00031031  RH  078%=      5-min Rain = 0
KAHS 100143Z 29002KT 00/M03 A3037 RMK A01 T00031031  RH  078%=      5-min Rain = 0
KAHS 100144Z 29002KT 00/M03 A3036 RMK A01 T00031031  RH  078%=      5-min Rain = 0
KAHS 100145Z 28002KT 00/M03 A3036 RMK A01 T00021031  RH  078%=      5-min Rain = 0
KAHS 100146Z 27002KT 00/M03 A3036 RMK A01 T00011031  RH  079%=      5-min Rain = 0
KAHS 100147Z 26002KT 00/M03 A3036 RMK A01 T00011031  RH  079%=      5-min Rain = 0
KAHS 100148Z 25003KT 00/M03 A3036 RMK A01 T00011031  RH  079%=      5-min Rain = 0
KAHS 100149Z 25003KT 00/M03 A3036 RMK A01 T00021031  RH  079%=      5-min Rain = 0
KAHS 100150Z 25002KT 00/M03 A3037 RMK A01 T00031031  RH  078%=      5-min Rain = 0
KAHS 100151Z 25002KT 00/M03 A3037 RMK A01 T00031032  RH  077%=      5-min Rain = 0
KAHS 100152Z 25002KT 00/M03 A3037 RMK A01 T00041032  RH  077%=      5-min Rain = 0
KAHS 100153Z 26002KT 00/M03 A3037 RMK A01 T00041033  RH  076%=      5-min Rain = 0
KAHS 100154Z 26002KT 00/M03 A3037 RMK A01 T00041033  RH  076%=      5-min Rain = 0
KAHS 100155Z 26003KT 01/M03 A3037 RMK A01 T00051034  RH  076%=      5-min Rain = 0
KAHS 100156Z 26003KT 01/M03 A3037 RMK A01 T00051034  RH  075%=      5-min Rain = 0
KAHS 100157Z 25003KT 01/M03 A3037 RMK A01 T00061034  RH  075%=      5-min Rain = 0
KAHS 100158Z 24003KT 01/M03 A3037 RMK A01 T00061034  RH  074%=      5-min Rain = 0
KAHS 100159Z 24002KT 01/M04 A3037 RMK A01 T00061035  RH  074%=      5-min Rain = 0
KAHS 100200Z 24003KT 01/M04 A3037 RMK A01 T00061035  RH  074%=      5-min Rain = 0
KAHS 100201Z 24003KT 01/M03 A3038 RMK A01 T00061034  RH  075%=      5-min Rain = 0
KAHS 100202Z 24003KT 01/M03 A3038 RMK A01 T00061034  RH  075%=      5-min Rain = 0
KAHS 100203Z 25003KT 01/M03 A3038 RMK A01 T00061034  RH  075%=      5-min Rain = 0
KAHS 100204Z 25003KT 01/M03 A3038 RMK A01 T00061034  RH  075%=      5-min Rain = 0
KAHS 100205Z 25003KT 01/M04 A3038 RMK A01 T00051035  RH  075%=      5-min Rain = 0
KAHS 100206Z 25003KT 01/M04 A3038 RMK A01 T00051035  RH  074%=      5-min Rain = 0
KAHS 100207Z 25003KT 01/M04 A3038 RMK A01 T00061035  RH  074%=      5-min Rain = 0
KAHS 100208Z 25003KT 01/M04 A3038 RMK A01 T00061035  RH  074%=      5-min Rain = 0
KAHS 100209Z 26003KT 01/M04 A3038 RMK A01 T00061036  RH  074%=      5-min Rain = 0
KAHS 100210Z 27003KT 01/M04 A3038 RMK A01 T00061035  RH  074%=      5-min Rain = 0
KAHS 100211Z 28003KT 01/M04 A3038 RMK A01 T00071035  RH  074%=      5-min Rain = 0
KAHS 100212Z 27003KT 01/M04 A3038 RMK A01 T00081035  RH  073%=      5-min Rain = 0
KAHS 100213Z 27003KT 01/M04 A3038 RMK A01 T00091035  RH  072%=      5-min Rain = 0
KAHS 100214Z 27003KT 01/M04 A3038 RMK A01 T00101035  RH  072%=      5-min Rain = 0
KAHS 100215Z 27003KT 01/M04 A3038 RMK A01 T00111035  RH  071%=      5-min Rain = 0
KAHS 100216Z 27003KT 01/M04 A3038 RMK A01 T00121035  RH  071%=      5-min Rain = 0
KAHS 100217Z 28003KT 01/M04 A3038 RMK A01 T00111036  RH  071%=      5-min Rain = 0
KAHS 100218Z 29004KT 01/M04 A3038 RMK A01 T00111036  RH  071%=      5-min Rain = 0
KAHS 100219Z 29003KT 01/M04 A3038 RMK A01 T00111035  RH  071%=      5-min Rain = 0
KAHS 100220Z 29003KT 01/M04 A3038 RMK A01 T00111035  RH  072%=      5-min Rain = 0
KAHS 100221Z 29003KT 01/M04 A3038 RMK A01 T00111035  RH  072%=      5-min Rain = 0
KAHS 100222Z 28003KT 01/M04 A3038 RMK A01 T00111035  RH  072%=      5-min Rain = 0
KAHS 100223Z 27003KT 01/M04 A3038 RMK A01 T00101035  RH  072%=      5-min Rain = 0
KAHS 100224Z 25003KT 01/M04 A3038 RMK A01 T00091035  RH  072%=      5-min Rain = 0
KAHS 100225Z 25003KT 01/M04 A3038 RMK A01 T00081036  RH  072%=      5-min Rain = 0
KAHS 100226Z 25003KT 01/M04 A3038 RMK A01 T00081036  RH  072%=      5-min Rain = 0
KAHS 100227Z 25003KT 01/M04 A3038 RMK A01 T00071036  RH  073%=      5-min Rain = 0
KAHS 100228Z 26003KT 01/M04 A3038 RMK A01 T00061036  RH  073%=      5-min Rain = 0
KAHS 100229Z 26003KT 01/M04 A3038 RMK A01 T00051037  RH  073%=      5-min Rain = 0
KAHS 100230Z 26003KT 01/M04 A3038 RMK A01 T00051037  RH  074%=      5-min Rain = 0
KAHS 100231Z 26003KT 00/M04 A3038 RMK A01 T00041036  RH  074%=      5-min Rain = 0
KAHS 100232Z 27003KT 00/M04 A3038 RMK A01 T00031036  RH  075%=      5-min Rain = 0
KAHS 100233Z 27003KT 00/M04 A3039 RMK A01 T00021036  RH  075%=      5-min Rain = 0
KAHS 100234Z 28003KT 00/M04 A3039 RMK A01 T00021036  RH  076%=      5-min Rain = 0
KAHS 100235Z 28004KT 00/M04 A3039 RMK A01 T00011036  RH  076%=      5-min Rain = 0
KAHS 100236Z 28004KT 00/M04 A3039 RMK A01 T00011035  RH  077%=      5-min Rain = 0
KAHS 100237Z 29004KT 00/03 A3039 RMK A01 T00000-34  RH  078%=      5-min Rain = 0
KAHS 100238Z 29004KT M00/M03 A3039 RMK A01 T10011033  RH  079%=      5-min Rain = 0
KAHS 100239Z 29004KT 00/03 A3039 RMK A01 T00-00-31  RH  080%=      5-min Rain = 0
KAHS 100240Z 29004KT 00/03 A3039 RMK A01 T00-00-31  RH  080%=      5-min Rain = 0
KAHS 100241Z 29004KT 00/03 A3039 RMK A01 T00000-30  RH  080%=      5-min Rain = 0
KAHS 100242Z 29004KT 00/03 A3039 RMK A01 T00000-31  RH  079%=      5-min Rain = 0
KAHS 100243Z 29004KT 00/03 A3039 RMK A01 T00000-31  RH  079%=      5-min Rain = 0
KAHS 100244Z 29004KT 00/03 A3039 RMK A01 T00000-31  RH  079%=      5-min Rain = 0
KAHS 100245Z 29004KT 00/03 A3039 RMK A01 T00000-31  RH  079%=      5-min Rain = 0
KAHS 100246Z 29004KT 00/03 A3039 RMK A01 T00000-31  RH  079%=      5-min Rain = 0
KAHS 100247Z 29004KT 00/03 A3039 RMK A01 T00000-30  RH  080%=      5-min Rain = 0
KAHS 100248Z 29004KT 00/03 A3039 RMK A01 T00-00-31  RH  080%=      5-min Rain = 0
KAHS 100249Z 29004KT 00/03 A3039 RMK A01 T00-00-30  RH  080%=      5-min Rain = 0
KAHS 100250Z 29004KT M00/M03 A3039 RMK A01 T10011031  RH  080%=      5-min Rain = 0
KAHS 100251Z 30004KT M00/M03 A3039 RMK A01 T10011031  RH  080%=      5-min Rain = 0
KAHS 100252Z 30004KT M00/M03 A3039 RMK A01 T10011030  RH  080%=      5-min Rain = 0
KAHS 100253Z 30004KT M00/M03 A3039 RMK A01 T10011030  RH  081%=      5-min Rain = 0
KAHS 100254Z 30004KT M00/M03 A3039 RMK A01 T10011030  RH  081%=      5-min Rain = 0
KAHS 100255Z 30004KT 00/03 A3039 RMK A01 T00-00-30  RH  081%=      5-min Rain = 0
KAHS 100256Z 30005KT 00/03 A3039 RMK A01 T00-00-30  RH  081%=      5-min Rain = 0
KAHS 100257Z 30005KT 00/03 A3039 RMK A01 T00-00-30  RH  081%=      5-min Rain = 0
KAHS 100258Z 30005KT 00/03 A3039 RMK A01 T00-00-30  RH  081%=      5-min Rain = 0
KAHS 100259Z 30005KT 00/03 A3039 RMK A01 T00-00-30  RH  081%=      5-min Rain = 0
KAHS 100300Z 31005KT M00/M03 A3039 RMK A01 T10011030  RH  081%=      5-min Rain = 0
KAHS 100301Z 31005KT M00/M03 A3039 RMK A01 T10011029  RH  081%=      5-min Rain = 0
KAHS 100302Z 31005KT M00/M03 A3039 RMK A01 T10011029  RH  082%=      5-min Rain = 0
KAHS 100303Z 32005KT M00/M03 A3039 RMK A01 T10021028  RH  082%=      5-min Rain = 0
KAHS 100304Z 32005KT M00/M03 A3039 RMK A01 T10021028  RH  083%=      5-min Rain = 0
KAHS 100305Z 33005KT M00/M03 A3039 RMK A01 T10021028  RH  083%=      5-min Rain = 0
KAHS 100306Z 33005KT M00/M03 A3039 RMK A01 T10021027  RH  083%=      5-min Rain = 0
KAHS 100307Z 33005KT M00/M03 A3039 RMK A01 T10011026  RH  083%=      5-min Rain = 0
KAHS 100308Z 32005KT M00/M03 A3039 RMK A01 T10011026  RH  083%=      5-min Rain = 0
KAHS 100309Z 32005KT M00/M03 A3039 RMK A01 T10011026  RH  083%=      5-min Rain = 0
KAHS 100310Z 32005KT 00/03 A3039 RMK A01 T00-00-26  RH  083%=      5-min Rain = 0
KAHS 100311Z 31005KT 00/03 A3039 RMK A01 T00-00-26  RH  083%=      5-min Rain = 0
KAHS 100312Z 31005KT 00/03 A3039 RMK A01 T00-00-26  RH  083%=      5-min Rain = 0
KAHS 100313Z 31005KT 00/03 A3039 RMK A01 T00-00-26  RH  083%=      5-min Rain = 0
KAHS 100314Z 31005KT 00/03 A3039 RMK A01 T00-00-26  RH  083%=      5-min Rain = 0
KAHS 100315Z 30004KT 00/03 A3039 RMK A01 T00-00-26  RH  083%=      5-min Rain = 0
KAHS 100316Z 30004KT M00/M03 A3039 RMK A01 T10011026  RH  083%=      5-min Rain = 0
KAHS 100317Z 30004KT M00/M03 A3039 RMK A01 T10011027  RH  083%=      5-min Rain = 0
KAHS 100318Z 31005KT M00/M03 A3039 RMK A01 T10021027  RH  083%=      5-min Rain = 0
KAHS 100319Z 31004KT M00/M03 A3039 RMK A01 T10031027  RH  084%=      5-min Rain = 0
KAHS 100320Z 30004KT M00/M03 A3039 RMK A01 T10041028  RH  084%=      5-min Rain = 0
KAHS 100321Z 30005KT M00/M03 A3039 RMK A01 T10041028  RH  084%=      5-min Rain = 0
KAHS 100322Z 30004KT M01/M03 A3039 RMK A01 T10051028  RH  084%=      5-min Rain = 0
KAHS 100323Z 30004KT M01/M03 A3039 RMK A01 T10051028  RH  085%=      5-min Rain = 0
KAHS 100324Z 30004KT M01/M03 A3039 RMK A01 T10061028  RH  085%=      5-min Rain = 0
KAHS 100325Z 30004KT M01/M03 A3039 RMK A01 T10071028  RH  085%=      5-min Rain = 0
KAHS 100326Z 31005KT M01/M03 A3039 RMK A01 T10071028  RH  086%=      5-min Rain = 0
KAHS 100327Z 31005KT M01/M03 A3039 RMK A01 T10071027  RH  086%=      5-min Rain = 0
KAHS 100328Z 31005KT M01/M03 A3039 RMK A01 T10071027  RH  086%=      5-min Rain = 0
KAHS 100329Z 31004KT M01/M03 A3039 RMK A01 T10071027  RH  086%=      5-min Rain = 0
KAHS 100330Z 30004KT M01/M03 A3039 RMK A01 T10071027  RH  086%=      5-min Rain = 0
KAHS 100331Z 30004KT M01/M03 A3039 RMK A01 T10071028  RH  086%=      5-min Rain = 0
KAHS 100332Z 30004KT M01/M03 A3039 RMK A01 T10071028  RH  086%=      5-min Rain = 0
KAHS 100333Z 30004KT M01/M03 A3039 RMK A01 T10071028  RH  086%=      5-min Rain = 0
KAHS 100334Z 31004KT M01/M03 A3039 RMK A01 T10071028  RH  086%=      5-min Rain = 0
KAHS 100335Z 31004KT M01/M03 A3039 RMK A01 T10071028  RH  086%=      5-min Rain = 0
KAHS 100336Z 30004KT M01/M03 A3039 RMK A01 T10061028  RH  086%=      5-min Rain = 0
KAHS 100337Z 29004KT M01/M03 A3039 RMK A01 T10061027  RH  085%=      5-min Rain = 0
KAHS 100338Z 29004KT M01/M03 A3039 RMK A01 T10051027  RH  085%=      5-min Rain = 0
KAHS 100339Z 28004KT M01/M03 A3039 RMK A01 T10051027  RH  085%=      5-min Rain = 0
KAHS 100340Z 28005KT M00/M03 A3038 RMK A01 T10041027  RH  084%=      5-min Rain = 0
KAHS 100341Z 28005KT M00/M03 A3038 RMK A01 T10041027  RH  084%=      5-min Rain = 0
KAHS 100342Z 28005KT M00/M03 A3038 RMK A01 T10031027  RH  084%=      5-min Rain = 0
KAHS 100343Z 28005KT M00/M03 A3038 RMK A01 T10031027  RH  083%=      5-min Rain = 0
KAHS 100344Z 28005KT M00/M03 A3039 RMK A01 T10021027  RH  083%=      5-min Rain = 0
KAHS 100345Z 29004KT M00/M03 A3039 RMK A01 T10021027  RH  083%=      5-min Rain = 0
KAHS 100346Z 29005KT M00/M03 A3039 RMK A01 T10021028  RH  083%=      5-min Rain = 0
KAHS 100347Z 29005KT M00/M03 A3039 RMK A01 T10021027  RH  083%=      5-min Rain = 0
KAHS 100348Z 29005KT M00/M03 A3039 RMK A01 T10011027  RH  083%=      5-min Rain = 0
KAHS 100349Z 30005KT M00/M03 A3039 RMK A01 T10021027  RH  083%=      5-min Rain = 0
KAHS 100350Z 30005KT M00/M03 A3039 RMK A01 T10011027  RH  083%=      5-min Rain = 0
KAHS 100351Z 30004KT M00/M03 A3039 RMK A01 T10021028  RH  083%=      5-min Rain = 0
KAHS 100352Z 30005KT M00/M03 A3039 RMK A01 T10021028  RH  083%=      5-min Rain = 0
KAHS 100353Z 30005KT M00/M03 A3039 RMK A01 T10021028  RH  083%=      5-min Rain = 0
KAHS 100354Z 29005KT M00/M03 A3039 RMK A01 T10021027  RH  083%=      5-min Rain = 0
KAHS 100355Z 28005KT M00/M03 A3039 RMK A01 T10011027  RH  083%=      5-min Rain = 0
KAHS 100356Z 28005KT M00/M03 A3038 RMK A01 T10011027  RH  082%=      5-min Rain = 0
KAHS 100357Z 28005KT M00/M03 A3038 RMK A01 T10011027  RH  082%=      5-min Rain = 0
KAHS 100358Z 28005KT M00/M03 A3038 RMK A01 T10011027  RH  082%=      5-min Rain = 0
KAHS 100359Z 28005KT M00/M03 A3038 RMK A01 T10011027  RH  082%=      5-min Rain = 0
KAHS 100400Z 29005KT M00/M03 A3038 RMK A01 T10011027  RH  082%=      5-min Rain = 0
KAHS 100401Z 28005KT M00/M03 A3038 RMK A01 T10011028  RH  082%=      5-min Rain = 0
KAHS 100402Z 28005KT M00/M03 A3038 RMK A01 T10011028  RH  083%=      5-min Rain = 0
KAHS 100403Z 28005KT M00/M03 A3038 RMK A01 T10021028  RH  083%=      5-min Rain = 0
KAHS 100404Z 28006KT M00/M03 A3038 RMK A01 T10021028  RH  083%=      5-min Rain = 0
KAHS 100405Z 29006KT M00/M03 A3038 RMK A01 T10031028  RH  083%=      5-min Rain = 0
KAHS 100406Z 29006KT M00/M03 A3038 RMK A01 T10041028  RH  084%=      5-min Rain = 0
KAHS 100407Z 30006KT M01/M03 A3039 RMK A01 T10051028  RH  084%=      5-min Rain = 0
KAHS 100408Z 29006KT M01/M03 A3038 RMK A01 T10051027  RH  085%=      5-min Rain = 0
KAHS 100409Z 29006KT M01/M03 A3038 RMK A01 T10051027  RH  085%=      5-min Rain = 0
KAHS 100410Z 29007KT M01/M03 A3038 RMK A01 T10051027  RH  085%=      5-min Rain = 0
KAHS 100411Z 29006KT M01/M03 A3039 RMK A01 T10051027  RH  085%=      5-min Rain = 0
KAHS 100412Z 29006KT M01/M03 A3039 RMK A01 T10051027  RH  085%=      5-min Rain = 0
KAHS 100413Z 29006KT M01/M03 A3039 RMK A01 T10051027  RH  085%=      5-min Rain = 0
KAHS 100414Z 30006KT M00/M03 A3039 RMK A01 T10041027  RH  085%=      5-min Rain = 0
KAHS 100415Z 30006KT M00/M03 A3039 RMK A01 T10041027  RH  085%=      5-min Rain = 0
KAHS 100416Z 30006KT M00/M03 A3039 RMK A01 T10031026  RH  084%=      5-min Rain = 0
KAHS 100417Z 29006KT M00/M03 A3039 RMK A01 T10031027  RH  084%=      5-min Rain = 0
KAHS 100418Z 29006KT M00/M03 A3039 RMK A01 T10021027  RH  084%=      5-min Rain = 0
KAHS 100419Z 29005KT M00/M03 A3039 RMK A01 T10021027  RH  083%=      5-min Rain = 0
KAHS 100420Z 29005KT M00/M03 A3039 RMK A01 T10021027  RH  083%=      5-min Rain = 0
KAHS 100421Z 29005KT M00/M03 A3038 RMK A01 T10021027  RH  083%=      5-min Rain = 0
KAHS 100422Z 29004KT M00/M03 A3038 RMK A01 T10031028  RH  083%=      5-min Rain = 0
KAHS 100423Z 29004KT M00/M03 A3038 RMK A01 T10041029  RH  083%=      5-min Rain = 0
KAHS 100424Z 29004KT M00/M03 A3038 RMK A01 T10041029  RH  083%=      5-min Rain = 0
KAHS 100425Z 29004KT M01/M03 A3038 RMK A01 T10051030  RH  084%=      5-min Rain = 0
KAHS 100426Z 28003KT M01/M03 A3038 RMK A01 T10051029  RH  084%=      5-min Rain = 0
KAHS 100427Z 28004KT M01/M03 A3038 RMK A01 T10061029  RH  084%=      5-min Rain = 0
KAHS 100428Z 28003KT M01/M03 A3038 RMK A01 T10061029  RH  084%=      5-min Rain = 0
KAHS 100429Z 28003KT M01/M03 A3038 RMK A01 T10071029  RH  085%=      5-min Rain = 0
KAHS 100430Z 28004KT M01/M03 A3038 RMK A01 T10071029  RH  085%=      5-min Rain = 0
KAHS 100431Z 29004KT M01/M03 A3038 RMK A01 T10071029  RH  085%=      5-min Rain = 0
KAHS 100432Z 29004KT M01/M03 A3038 RMK A01 T10071028  RH  086%=      5-min Rain = 0
KAHS 100433Z 29005KT M01/M03 A3038 RMK A01 T10061027  RH  086%=      5-min Rain = 0
KAHS 100434Z 29005KT M01/M03 A3038 RMK A01 T10051027  RH  086%=      5-min Rain = 0
KAHS 100435Z 30005KT M01/M03 A3039 RMK A01 T10051026  RH  085%=      5-min Rain = 0
KAHS 100436Z 30005KT M00/M03 A3039 RMK A01 T10041026  RH  085%=      5-min Rain = 0
KAHS 100437Z 30005KT M00/M03 A3039 RMK A01 T10041026  RH  085%=      5-min Rain = 0
KAHS 100438Z 30005KT M00/M03 A3039 RMK A01 T10031026  RH  085%=      5-min Rain = 0
KAHS 100439Z 30006KT M00/M03 A3039 RMK A01 T10031026  RH  085%=      5-min Rain = 0
KAHS 100440Z 30006KT M00/M03 A3039 RMK A01 T10021026  RH  084%=      5-min Rain = 0
KAHS 100441Z 30006KT M00/M03 A3039 RMK A01 T10011026  RH  084%=      5-min Rain = 0
KAHS 100442Z 31006KT M00/M03 A3039 RMK A01 T10011026  RH  084%=      5-min Rain = 0
KAHS 100443Z 31006KT M00/M03 A3039 RMK A01 T10011026  RH  083%=      5-min Rain = 0
KAHS 100444Z 30007KT M00/M03 A3039 RMK A01 T10011026  RH  083%=      5-min Rain = 0
KAHS 100445Z 30006KT M00/M03 A3039 RMK A01 T10011026  RH  083%=      5-min Rain = 0
KAHS 100446Z 30006KT M00/M03 A3039 RMK A01 T10011026  RH  083%=      5-min Rain = 0
KAHS 100447Z 30006KT M00/M03 A3039 RMK A01 T10011026  RH  083%=      5-min Rain = 0
KAHS 100448Z 30006KT M00/M03 A3039 RMK A01 T10011027  RH  083%=      5-min Rain = 0
KAHS 100449Z 30005KT M00/M03 A3039 RMK A01 T10021027  RH  083%=      5-min Rain = 0
KAHS 100450Z 30005KT M00/M03 A3039 RMK A01 T10021027  RH  083%=      5-min Rain = 0
KAHS 100451Z 30005KT M00/M03 A3039 RMK A01 T10021027  RH  084%=      5-min Rain = 0
KAHS 100452Z 30005KT M00/M03 A3039 RMK A01 T10031027  RH  084%=      5-min Rain = 0
KAHS 100453Z 30005KT M00/M03 A3039 RMK A01 T10031027  RH  084%=      5-min Rain = 0
KAHS 100454Z 30006KT M00/M03 A3039 RMK A01 T10031027  RH  084%=      5-min Rain = 0
KAHS 100455Z 30006KT M00/M03 A3039 RMK A01 T10031027  RH  084%=      5-min Rain = 0
KAHS 100456Z 30006KT M00/M03 A3039 RMK A01 T10031027  RH  084%=      5-min Rain = 0
KAHS 100457Z 30006KT M00/M03 A3039 RMK A01 T10031027  RH  084%=      5-min Rain = 0
KAHS 100458Z 30005KT M00/M03 A3039 RMK A01 T10031027  RH  084%=      5-min Rain = 0
KAHS 100459Z 31006KT M00/M03 A3039 RMK A01 T10041027  RH  084%=      5-min Rain = 0
KAHS 100500Z 31005KT M00/M03 A3039 RMK A01 T10041028  RH  084%=      5-min Rain = 0
KAHS 100501Z 30006KT M01/M03 A3039 RMK A01 T10051028  RH  084%=      5-min Rain = 0
KAHS 100502Z 30006KT M01/M03 A3039 RMK A01 T10051028  RH  085%=      5-min Rain = 0
KAHS 100503Z 30006KT M01/M03 A3039 RMK A01 T10061028  RH  085%=      5-min Rain = 0
KAHS 100504Z 30006KT M01/M03 A3039 RMK A01 T10061028  RH  085%=      5-min Rain = 0
KAHS 100505Z 30006KT M01/M03 A3039 RMK A01 T10061028  RH  085%=      5-min Rain = 0
KAHS 100506Z 30007KT M01/M03 A3039 RMK A01 T10061028  RH  085%=      5-min Rain = 0
KAHS 100507Z 30006KT M01/M03 A3039 RMK A01 T10061028  RH  085%=      5-min Rain = 0
KAHS 100508Z 30006KT M01/M03 A3039 RMK A01 T10061028  RH  085%=      5-min Rain = 0
KAHS 100509Z 30006KT M01/M03 A3039 RMK A01 T10061028  RH  085%=      5-min Rain = 0
KAHS 100510Z 30007KT M01/M03 A3039 RMK A01 T10071028  RH  086%=      5-min Rain = 0
KAHS 100511Z 30007KT M01/M03 A3039 RMK A01 T10071028  RH  086%=      5-min Rain = 0
KAHS 100512Z 30006KT M01/M03 A3039 RMK A01 T10071028  RH  086%=      5-min Rain = 0
KAHS 100513Z 30006KT M01/M03 A3039 RMK A01 T10071028  RH  086%=      5-min Rain = 0
KAHS 100514Z 30007KT M01/M03 A3039 RMK A01 T10071027  RH  086%=      5-min Rain = 0
KAHS 100515Z 30007KT M01/M03 A3039 RMK A01 T10061027  RH  086%=      5-min Rain = 0
KAHS 100516Z 30006KT M01/M03 A3039 RMK A01 T10061027  RH  086%=      5-min Rain = 0
KAHS 100517Z 30006KT M01/M03 A3039 RMK A01 T10061027  RH  086%=      5-min Rain = 0
KAHS 100518Z 30006KT M01/M03 A3039 RMK A01 T10061027  RH  086%=      5-min Rain = 0
KAHS 100519Z 30007KT M01/M03 A3039 RMK A01 T10061026  RH  086%=      5-min Rain = 0
KAHS 100520Z 30007KT M01/M03 A3039 RMK A01 T10051026  RH  086%=      5-min Rain = 0
KAHS 100521Z 30007KT M01/M03 A3039 RMK A01 T10051026  RH  086%=      5-min Rain = 0
KAHS 100522Z 31007KT M01/M03 A3039 RMK A01 T10051026  RH  086%=      5-min Rain = 0
KAHS 100523Z 31006KT M00/M03 A3039 RMK A01 T10041026  RH  086%=      5-min Rain = 0
KAHS 100524Z 30006KT M00/M03 A3039 RMK A01 T10041026  RH  085%=      5-min Rain = 0
KAHS 100525Z 30005KT M00/M03 A3039 RMK A01 T10041026  RH  085%=      5-min Rain = 0
KAHS 100526Z 30006KT M00/M03 A3039 RMK A01 T10041026  RH  085%=      5-min Rain = 0
KAHS 100527Z 30006KT M00/M03 A3038 RMK A01 T10041025  RH  085%=      5-min Rain = 0
KAHS 100528Z 30005KT M00/M03 A3038 RMK A01 T10031025  RH  085%=      5-min Rain = 0
KAHS 100529Z 29005KT M00/M03 A3038 RMK A01 T10031025  RH  085%=      5-min Rain = 0
KAHS 100530Z 29005KT M00/M03 A3038 RMK A01 T10031026  RH  085%=      5-min Rain = 0
KAHS 100531Z 29005KT M00/M03 A3038 RMK A01 T10031026  RH  085%=      5-min Rain = 0
KAHS 100532Z 29004KT M00/M03 A3038 RMK A01 T10031026  RH  085%=      5-min Rain = 0
KAHS 100533Z 29004KT M00/M03 A3038 RMK A01 T10031025  RH  085%=      5-min Rain = 0
KAHS 100534Z 28004KT M00/M03 A3038 RMK A01 T10041026  RH  085%=      5-min Rain = 0
KAHS 100535Z 28004KT M00/M03 A3038 RMK A01 T10041026  RH  085%=      5-min Rain = 0
KAHS 100536Z 28004KT M01/M03 A3038 RMK A01 T10051026  RH  086%=      5-min Rain = 0
KAHS 100537Z 28004KT M01/M03 A3038 RMK A01 T10051026  RH  086%=      5-min Rain = 0
KAHS 100538Z 28004KT M01/M03 A3038 RMK A01 T10061026  RH  086%=      5-min Rain = 0
KAHS 100539Z 27004KT M01/M03 A3038 RMK A01 T10061026  RH  086%=      5-min Rain = 0
KAHS 100540Z 28004KT M01/M03 A3038 RMK A01 T10061026  RH  086%=      5-min Rain = 0
KAHS 100541Z 27004KT M01/M03 A3038 RMK A01 T10071027  RH  086%=      5-min Rain = 0
KAHS 100542Z 27004KT M01/M03 A3038 RMK A01 T10071027  RH  087%=      5-min Rain = 0
KAHS 100543Z 27004KT M01/M03 A3038 RMK A01 T10081027  RH  087%=      5-min Rain = 0
KAHS 100544Z 26004KT M01/M03 A3038 RMK A01 T10081027  RH  087%=      5-min Rain = 0
KAHS 100545Z 26004KT M01/M03 A3038 RMK A01 T10091028  RH  087%=      5-min Rain = 0
KAHS 100546Z 26004KT M01/M03 A3038 RMK A01 T10091028  RH  087%=      5-min Rain = 0
KAHS 100547Z 26005KT M01/M03 A3038 RMK A01 T10101028  RH  088%=      5-min Rain = 0
KAHS 100548Z 26005KT M01/M03 A3038 RMK A01 T10101028  RH  088%=      5-min Rain = 0
KAHS 100549Z 26005KT M01/M03 A3038 RMK A01 T10111028  RH  088%=      5-min Rain = 0
KAHS 100550Z 26005KT M01/M03 A3038 RMK A01 T10111028  RH  088%=      5-min Rain = 0
KAHS 100551Z 26006KT M01/M03 A3038 RMK A01 T10111028  RH  088%=      5-min Rain = 0
KAHS 100552Z 27006KT M01/M03 A3038 RMK A01 T10111028  RH  088%=      5-min Rain = 0
KAHS 100553Z 27006KT M01/M03 A3038 RMK A01 T10111028  RH  089%=      5-min Rain = 0
KAHS 100554Z 27006KT M01/M03 A3038 RMK A01 T10111028  RH  089%=      5-min Rain = 0
KAHS 100555Z 27006KT M01/M03 A3038 RMK A01 T10111028  RH  089%=      5-min Rain = 0
KAHS 100556Z 27006KT M01/M03 A3038 RMK A01 T10111028  RH  089%=      5-min Rain = 0
KAHS 100557Z 26006KT M01/M03 A3038 RMK A01 T10111028  RH  089%=      5-min Rain = 0
KAHS 100558Z 26006KT M01/M03 A3038 RMK A01 T10111028  RH  089%=      5-min Rain = 0
KAHS 100559Z 26005KT M01/M03 A3038 RMK A01 T10111028  RH  089%=      5-min Rain = 0

Page generated in 0.1521 seconds.